GFSSE_prec_pwat_000.txt.gz
Precipitable_Water
2.20 2.34 2.36 2.30 2.23 2.17 2.23 2.23 2.22 2.21 2.11 2.05 1.96 1.87 1.77 1.69 1.63 1.57 1.53 1.51 1.51 1.52 1.44 1.45 1.48 1.58 1.65 1.72 1.76 1.90 1.94 1.86 1.81 1.73 1.64 1.36 1.32 1.38 1.46 1.48 1.34 1.24 1.36
2.24 2.30 2.29 2.25 2.21 2.19 2.18 2.15 2.15 2.09 2.00 1.93 1.88 1.80 1.63 1.55 1.51 1.48 1.45 1.47 1.47 1.42 1.43 1.46 1.48 1.53 1.58 1.63 1.67 1.81 1.99 2.01 1.91 1.88 1.65 1.41 1.33 1.45 1.41 1.37 1.54 1.16 1.43
2.23 2.30 2.25 2.24 2.21 2.16 2.09 2.00 2.03 1.97 1.91 1.82 1.77 1.67 1.57 1.50 1.46 1.41 1.43 1.47 1.42 1.45 1.52 1.53 1.53 1.56 1.63 1.70 1.70 1.72 1.87 2.01 2.05 2.00 1.66 1.34 1.28 1.47 1.44 1.31 1.49 1.48 1.59
2.19 2.24 2.22 2.18 2.13 2.01 1.97 1.91 1.89 1.83 1.70 1.64 1.62 1.60 1.56 1.55 1.51 1.53 1.60 1.55 1.50 1.53 1.56 1.56 1.60 1.61 1.63 1.67 1.72 1.80 1.87 1.94 1.95 2.05 1.81 1.51 1.24 1.35 1.41 1.28 1.46 1.36 1.67
2.11 2.15 2.15 2.06 1.99 1.91 1.92 1.85 1.85 1.72 1.68 1.65 1.62 1.61 1.61 1.61 1.64 1.64 1.63 1.62 1.63 1.60 1.56 1.59 1.62 1.66 1.68 1.68 1.70 1.88 1.90 1.90 1.94 2.00 1.95 1.66 1.33 1.28 1.32 1.30 1.47 1.24 1.54
1.95 1.98 1.95 1.92 1.88 1.87 1.88 1.83 1.83 1.76 1.70 1.66 1.67 1.69 1.67 1.67 1.63 1.65 1.64 1.66 1.68 1.64 1.66 1.66 1.64 1.66 1.71 1.71 1.72 1.83 1.84 1.92 2.03 2.00 1.99 1.80 1.46 1.32 1.41 1.18 1.39 1.22 1.26
1.85 1.92 1.89 1.91 1.89 1.87 1.86 1.80 1.75 1.72 1.67 1.65 1.67 1.69 1.68 1.69 1.71 1.73 1.72 1.71 1.65 1.66 1.70 1.73 1.74 1.69 1.69 1.73 1.74 1.69 1.77 1.87 1.87 1.94 2.00 1.93 1.63 1.37 1.53 1.29 1.39 1.50 1.30
1.84 1.89 1.89 1.86 1.86 1.84 1.81 1.68 1.62 1.61 1.60 1.64 1.73 1.74 1.73 1.74 1.76 1.75 1.77 1.76 1.79 1.72 1.76 1.75 1.74 1.72 1.74 1.74 1.78 1.76 1.70 1.78 1.89 1.90 1.98 1.99 1.83 1.42 1.48 1.40 1.27 1.35 1.50
1.88 1.84 1.83 1.79 1.79 1.79 1.71 1.69 1.68 1.66 1.71 1.73 1.75 1.79 1.78 1.81 1.81 1.81 1.87 1.84 1.84 1.80 1.83 1.82 1.75 1.80 1.70 1.66 1.81 1.84 1.80 1.85 1.88 1.95 1.98 2.04 1.95 1.59 1.38 1.37 1.26 1.27 1.41
1.75 1.76 1.75 1.76 1.71 1.79 1.80 1.76 1.74 1.73 1.72 1.72 1.75 1.75 1.77 1.79 1.81 1.78 1.94 1.83 1.83 1.83 1.91 1.92 1.88 1.91 1.91 1.80 1.81 1.85 1.91 1.91 1.88 1.92 1.96 2.02 2.02 1.77 1.40 1.42 1.49 1.31 1.35
1.63 1.67 1.73 1.72 1.72 1.72 1.78 1.77 1.76 1.69 1.72 1.76 1.72 1.72 1.77 1.84 1.85 1.83 1.89 1.90 1.85 1.87 1.97 1.94 1.88 1.89 1.95 1.92 1.88 1.89 1.90 1.90 1.85 1.86 1.99 1.92 1.99 1.98 1.63 1.46 1.47 1.34 1.33
1.41 1.55 1.67 1.69 1.71 1.76 1.77 1.77 1.76 1.78 1.71 1.66 1.67 1.67 1.71 1.75 1.85 1.83 1.79 1.82 1.82 1.80 1.90 1.89 1.94 1.94 1.85 1.86 1.85 1.84 1.89 1.90 1.85 1.77 1.86 1.91 1.92 2.05 2.01 1.40 1.58 1.42 1.45
1.43 1.56 1.63 1.65 1.71 1.66 1.64 1.66 1.68 1.66 1.62 1.60 1.62 1.67 1.73 1.78 1.84 1.84 1.75 1.74 1.67 1.76 1.77 1.75 1.78 1.82 1.80 1.79 1.77 1.73 1.70 1.80 1.92 1.89 1.82 1.77 1.95 1.94 2.10 2.01 1.46 1.52 1.50
1.35 1.46 1.60 1.68 1.65 1.67 1.69 1.66 1.70 1.64 1.60 1.54 1.58 1.66 1.75 1.75 1.81 1.76 1.73 1.71 1.68 1.67 1.63 1.60 1.59 1.61 1.59 1.55 1.50 1.50 1.53 1.62 1.78 1.85 1.95 1.77 1.82 1.92 1.99 2.13 2.01 1.58 1.49
1.29 1.34 1.44 1.57 1.58 1.62 1.66 1.68 1.74 1.64 1.63 1.68 1.62 1.63 1.81 1.84 1.79 1.83 1.73 1.71 1.68 1.65 1.58 1.54 1.52 1.50 1.45 1.39 1.38 1.33 1.32 1.34 1.53 1.70 1.82 1.93 1.78 1.86 1.86 1.93 2.09 1.97 1.64
1.33 1.32 1.40 1.42 1.49 1.58 1.68 1.72 1.69 1.67 1.66 1.69 1.68 1.73 1.72 1.80 1.71 1.72 1.70 1.64 1.63 1.61 1.54 1.55 1.51 1.45 1.38 1.35 1.23 1.21 1.16 1.13 1.17 1.31 1.60 1.76 1.91 1.91 1.86 1.84 2.01 2.09 1.90
1.32 1.37 1.39 1.47 1.77 1.59 1.62 1.69 1.71 1.70 1.67 1.68 1.74 1.74 1.74 1.73 1.65 1.67 1.72 1.60 1.60 1.55 1.54 1.52 1.49 1.43 1.32 1.21 1.04 1.02 1.02 1.04 1.03 1.02 1.20 1.46 1.69 1.87 1.97 1.86 1.87 1.99 2.11
1.36 1.36 1.45 1.55 1.59 1.60 1.53 1.58 1.56 1.58 1.56 1.56 1.67 1.70 1.72 1.70 1.65 1.66 1.68 1.64 1.62 1.58 1.57 1.51 1.41 1.26 1.16 1.04 0.93 0.96 0.97 0.95 0.98 1.00 0.97 1.05 1.25 1.51 1.79 1.98 1.90 1.91 2.03
1.36 1.37 1.39 1.52 1.52 1.51 1.64 1.52 1.53 1.56 1.54 1.53 1.61 1.61 1.61 1.59 1.62 1.58 1.53 1.58 1.57 1.54 1.45 1.29 1.19 1.12 0.98 0.94 0.94 1.00 1.01 1.00 0.96 1.01 1.06 1.06 1.06 1.14 1.34 1.75 1.95 1.91 1.91
1.37 1.39 1.40 1.43 1.47 1.58 1.54 1.51 1.58 1.50 1.53 1.53 1.52 1.63 1.57 1.55 1.54 1.49 1.61 1.71 1.59 1.33 1.18 1.10 0.99 1.04 0.99 0.98 0.97 0.98 1.02 1.06 1.05 0.97 1.06 1.18 1.20 1.22 1.17 1.26 1.72 1.99 2.01
1.33 1.37 1.36 1.37 1.45 1.50 1.34 1.27 1.31 1.27 1.38 1.45 1.50 1.54 1.50 1.50 1.49 1.43 1.43 1.44 1.22 1.11 1.00 0.99 0.96 0.89 0.89 1.00 0.96 0.96 0.99 1.05 1.04 1.05 1.08 1.10 1.08 1.15 1.31 1.34 1.35 1.56 1.85
1.18 1.24 1.29 1.33 1.37 1.34 1.29 1.28 1.32 1.36 1.40 1.42 1.42 1.41 1.41 1.41 1.40 1.31 1.19 1.12 1.05 0.95 0.88 0.87 0.85 0.86 0.92 1.06 0.89 0.84 0.70 0.88 1.04 1.07 1.09 1.04 0.95 1.01 1.10 1.23 1.32 1.35 1.39
1.11 1.15 1.20 1.26 1.29 1.25 1.25 1.28 1.32 1.34 1.27 1.17 1.18 1.17 1.27 1.27 1.24 1.22 1.12 0.94 0.85 0.87 0.86 0.90 0.88 0.91 0.87 1.01 1.05 0.83 0.61 0.59 0.77 0.97 1.00 0.95 0.85 0.89 0.96 1.05 1.16 1.27 1.38
1.09 1.21 1.23 1.24 1.20 1.25 1.30 1.22 1.15 1.05 0.97 1.05 1.04 1.11 1.11 1.09 1.15 1.06 0.83 0.85 0.91 0.96 0.95 0.93 0.97 0.99 0.99 0.85 0.95 1.00 0.97 0.91 0.68 0.64 0.85 0.84 0.82 0.80 0.85 0.90 0.99 1.10 1.19
1.17 1.18 1.20 1.17 1.15 1.24 1.31 1.28 1.20 1.09 1.14 1.16 1.10 1.10 1.15 1.19 1.17 0.93 0.86 0.90 0.93 1.00 0.99 0.93 0.92 0.93 0.97 0.92 0.92 0.91 0.87 0.88 0.91 0.72 0.57 0.63 0.74 0.77 0.78 0.80 0.87 0.90 0.95
1.19 1.17 1.13 1.13 1.12 1.24 1.31 1.31 1.25 1.15 1.10 1.07 1.03 0.97 1.02 1.16 1.06 0.99 0.91 0.97 1.01 0.98 0.89 0.90 0.92 0.94 0.97 1.02 1.02 0.92 0.84 0.76 0.74 0.75 0.69 0.69 0.70 0.74 0.77 0.76 0.75 0.77 0.81

GFSSE_prec_pwat_003.txt.gz
Precipitable_Water
2.17 2.32 2.28 2.23 2.23 2.27 2.26 2.26 2.16 2.07 1.98 1.89 1.79 1.74 1.67 1.65 1.61 1.54 1.49 1.51 1.50 1.43 1.47 1.53 1.60 1.63 1.65 1.70 1.83 2.01 2.01 1.86 1.84 1.64 1.44 1.35 1.43 1.45 1.44 1.35 1.32 1.55 1.38
2.20 2.26 2.22 2.17 2.20 2.31 2.25 2.18 2.13 2.04 1.94 1.82 1.73 1.66 1.62 1.59 1.54 1.51 1.52 1.49 1.46 1.51 1.52 1.57 1.59 1.65 1.68 1.66 1.74 1.84 2.09 2.01 1.94 1.84 1.48 1.33 1.44 1.43 1.43 1.42 1.23 1.48 1.64
2.10 2.18 2.18 2.14 2.13 2.13 2.10 2.07 2.01 1.93 1.83 1.78 1.72 1.63 1.55 1.49 1.49 1.46 1.50 1.47 1.52 1.56 1.58 1.58 1.59 1.65 1.71 1.71 1.80 1.86 1.99 2.02 2.06 1.95 1.59 1.31 1.47 1.58 1.39 1.48 1.59 1.51 1.77
2.10 2.15 2.13 2.09 2.02 2.02 2.05 2.01 1.91 1.87 1.80 1.77 1.72 1.60 1.56 1.55 1.55 1.58 1.61 1.54 1.58 1.64 1.62 1.64 1.64 1.65 1.69 1.72 1.83 1.91 1.96 1.93 2.00 2.06 1.72 1.46 1.40 1.40 1.39 1.42 1.45 1.59 1.49
2.06 2.07 2.05 1.97 1.94 1.94 1.97 1.94 1.85 1.81 1.74 1.69 1.69 1.61 1.60 1.61 1.61 1.68 1.66 1.66 1.70 1.66 1.66 1.68 1.68 1.66 1.67 1.70 1.81 1.91 1.90 2.00 1.97 2.00 1.84 1.54 1.41 1.48 1.29 1.40 1.25 1.60 1.45
1.96 1.94 1.90 1.92 1.94 1.94 1.96 1.90 1.82 1.75 1.64 1.66 1.65 1.66 1.65 1.67 1.69 1.68 1.67 1.70 1.71 1.72 1.76 1.74 1.70 1.71 1.70 1.73 1.75 1.81 1.84 1.93 1.97 2.00 1.96 1.68 1.48 1.37 1.32 1.25 1.35 1.38 1.44
1.84 1.86 1.89 1.91 1.91 1.89 1.87 1.87 1.79 1.72 1.66 1.67 1.70 1.72 1.73 1.75 1.77 1.81 1.84 1.82 1.73 1.72 1.76 1.76 1.74 1.72 1.68 1.73 1.79 1.75 1.79 1.95 1.88 2.02 1.97 1.90 1.55 1.40 1.54 1.25 1.40 1.27 1.25
1.79 1.86 1.88 1.89 1.85 1.83 1.77 1.78 1.77 1.71 1.71 1.69 1.68 1.70 1.75 1.82 1.86 1.87 1.82 1.85 1.80 1.77 1.80 1.82 1.78 1.78 1.71 1.65 1.83 1.78 1.78 1.88 1.97 1.95 1.98 1.94 1.73 1.41 1.47 1.36 1.37 1.57 1.40
1.86 1.82 1.87 1.88 1.87 1.83 1.77 1.75 1.75 1.68 1.64 1.64 1.72 1.76 1.78 1.83 1.81 1.83 1.91 1.87 1.83 1.83 1.88 1.91 1.89 1.88 1.75 1.68 1.79 1.82 1.83 1.83 1.97 2.06 2.01 2.06 1.88 1.51 1.53 1.41 1.28 1.28 1.49
1.80 1.79 1.78 1.83 1.87 1.81 1.81 1.71 1.68 1.66 1.69 1.75 1.77 1.83 1.81 1.80 1.78 1.79 1.92 1.84 1.82 1.90 1.99 1.92 1.93 1.92 1.96 1.90 1.88 1.93 1.90 1.86 1.85 1.82 1.95 2.02 1.96 1.80 1.42 1.49 1.42 1.29 1.38
1.70 1.75 1.78 1.72 1.79 1.79 1.80 1.78 1.75 1.73 1.75 1.73 1.75 1.76 1.74 1.84 1.86 1.86 1.84 1.87 1.92 1.86 1.99 1.97 1.92 1.96 1.90 1.90 1.85 1.83 1.86 1.91 1.88 1.85 1.90 1.95 1.92 2.02 1.64 1.54 1.46 1.43 1.29
1.49 1.62 1.71 1.73 1.70 1.79 1.77 1.76 1.75 1.72 1.70 1.71 1.73 1.71 1.76 1.79 1.82 1.87 1.83 1.82 1.84 1.79 1.83 1.77 1.80 1.84 1.85 1.85 1.81 1.75 1.71 1.74 1.83 1.86 1.80 1.84 1.95 1.99 2.02 1.59 1.54 1.44 1.46
1.46 1.56 1.63 1.68 1.69 1.70 1.73 1.80 1.75 1.69 1.65 1.64 1.68 1.70 1.75 1.75 1.80 1.83 1.80 1.73 1.65 1.71 1.71 1.64 1.62 1.63 1.64 1.57 1.51 1.49 1.50 1.52 1.65 1.81 1.94 1.83 1.81 1.96 2.01 2.06 1.60 1.56 1.50
1.37 1.49 1.60 1.64 1.66 1.72 1.74 1.72 1.71 1.61 1.63 1.60 1.64 1.72 1.66 1.74 1.81 1.80 1.77 1.73 1.72 1.70 1.61 1.58 1.52 1.47 1.44 1.44 1.41 1.37 1.33 1.29 1.33 1.62 1.77 1.93 1.78 1.85 1.93 2.10 2.14 1.72 1.51
1.30 1.44 1.54 1.60 1.60 1.67 1.63 1.64 1.62 1.61 1.62 1.62 1.61 1.64 1.70 1.77 1.81 1.77 1.73 1.74 1.71 1.70 1.61 1.53 1.50 1.47 1.43 1.39 1.35 1.22 1.14 1.16 1.16 1.23 1.50 1.73 1.93 1.78 1.89 1.91 2.06 2.03 1.85
1.31 1.36 1.48 1.51 1.61 1.70 1.67 1.63 1.60 1.66 1.64 1.65 1.64 1.61 1.63 1.71 1.78 1.78 1.68 1.66 1.61 1.61 1.55 1.49 1.46 1.45 1.40 1.35 1.20 1.12 0.99 1.00 1.06 1.09 1.14 1.40 1.69 1.89 1.87 1.90 1.92 2.09 2.02
1.34 1.37 1.37 1.44 1.52 1.56 1.57 1.60 1.62 1.60 1.60 1.57 1.62 1.73 1.74 1.81 1.72 1.68 1.70 1.62 1.60 1.57 1.53 1.51 1.51 1.45 1.32 1.21 1.09 0.98 1.00 1.01 0.98 1.01 1.02 1.15 1.36 1.59 1.83 1.93 1.88 1.94 2.05
1.35 1.34 1.37 1.47 1.47 1.62 1.53 1.56 1.64 1.65 1.65 1.63 1.67 1.74 1.76 1.76 1.72 1.60 1.61 1.61 1.57 1.54 1.49 1.47 1.38 1.21 1.14 1.06 0.99 1.04 1.07 1.06 1.06 1.01 1.03 1.00 1.01 1.22 1.49 1.74 1.89 1.91 1.97
1.36 1.36 1.34 1.46 1.49 1.58 1.61 1.60 1.54 1.57 1.59 1.56 1.59 1.60 1.68 1.62 1.60 1.57 1.57 1.58 1.62 1.59 1.48 1.35 1.23 1.11 0.96 0.98 0.98 1.02 1.03 1.03 1.06 1.04 1.07 1.15 1.15 1.09 1.09 1.34 1.63 1.87 1.92
1.37 1.40 1.41 1.45 1.51 1.66 1.62 1.62 1.58 1.56 1.58 1.54 1.53 1.58 1.62 1.63 1.62 1.50 1.46 1.49 1.60 1.55 1.38 1.15 1.09 1.07 1.01 0.96 0.89 0.98 1.03 1.07 1.08 1.07 1.06 1.09 1.09 1.22 1.28 1.18 1.31 1.58 1.87
1.37 1.34 1.37 1.36 1.41 1.54 1.41 1.33 1.32 1.27 1.39 1.49 1.51 1.56 1.60 1.58 1.50 1.47 1.41 1.38 1.36 1.19 1.09 1.06 1.01 0.94 0.92 0.96 0.85 0.90 0.97 1.05 1.04 1.07 1.12 1.00 0.95 1.01 1.14 1.29 1.35 1.33 1.46
1.31 1.33 1.35 1.34 1.38 1.47 1.43 1.39 1.34 1.30 1.33 1.35 1.41 1.42 1.41 1.40 1.40 1.39 1.30 1.16 1.10 0.99 0.91 0.90 0.93 0.91 0.93 1.00 0.86 0.82 0.68 0.87 1.01 0.98 0.98 0.86 0.88 0.94 0.97 1.12 1.22 1.32 1.41
1.23 1.26 1.29 1.30 1.30 1.37 1.40 1.39 1.33 1.31 1.27 1.21 1.28 1.34 1.38 1.43 1.40 1.28 1.16 1.08 0.93 0.83 0.85 0.91 0.93 0.89 0.89 1.04 1.03 0.83 0.63 0.62 0.72 0.91 0.92 0.82 0.80 0.81 0.87 0.97 1.09 1.17 1.21
1.14 1.26 1.32 1.34 1.29 1.31 1.39 1.29 1.20 1.09 1.04 1.20 1.30 1.34 1.33 1.35 1.22 1.17 1.14 0.89 0.87 0.91 0.88 0.91 0.91 0.94 0.95 0.85 0.94 0.98 0.96 0.90 0.66 0.63 0.83 0.83 0.83 0.79 0.80 0.83 0.90 1.00 1.02
1.13 1.17 1.28 1.31 1.30 1.32 1.33 1.34 1.27 1.20 1.24 1.31 1.27 1.17 1.24 1.28 1.22 1.22 1.05 0.86 0.90 0.95 0.97 0.93 0.91 0.89 0.91 0.86 0.88 0.93 0.89 0.85 0.86 0.73 0.61 0.71 0.84 0.87 0.87 0.85 0.85 0.84 0.89
1.21 1.20 1.22 1.24 1.21 1.29 1.34 1.35 1.30 1.24 1.26 1.21 1.17 1.10 1.15 1.20 1.20 1.23 1.06 0.99 1.02 1.00 1.00 0.90 0.92 0.89 0.91 0.94 1.04 0.97 0.86 0.79 0.78 0.76 0.69 0.73 0.73 0.83 0.88 0.90 0.85 0.86 0.86

GFSSE_prec_pwat_006.txt.gz
Precipitable_Water
2.14 2.23 2.30 2.28 2.26 2.24 2.17 2.05 2.01 1.96 1.90 1.81 1.68 1.64 1.65 1.61 1.58 1.59 1.55 1.55 1.48 1.47 1.52 1.56 1.61 1.66 1.70 1.76 1.83 2.07 1.96 1.91 1.74 1.50 1.40 1.48 1.45 1.45 1.30 1.26 1.62 1.48 1.43
2.25 2.27 2.23 2.27 2.25 2.20 2.15 2.04 1.95 1.89 1.80 1.74 1.66 1.62 1.61 1.58 1.57 1.58 1.58 1.50 1.49 1.52 1.54 1.58 1.68 1.71 1.69 1.74 1.82 1.99 2.09 2.04 1.98 1.67 1.43 1.55 1.55 1.52 1.47 1.25 1.60 1.56 1.43
2.14 2.20 2.19 2.27 2.20 2.15 2.11 2.07 1.95 1.81 1.75 1.67 1.62 1.60 1.57 1.54 1.52 1.54 1.52 1.53 1.54 1.57 1.58 1.60 1.64 1.70 1.71 1.75 1.90 1.94 1.99 2.07 2.08 1.77 1.45 1.48 1.58 1.54 1.53 1.61 1.49 1.87 1.85
2.06 2.09 2.09 2.13 2.11 2.06 1.97 1.95 1.88 1.79 1.77 1.68 1.58 1.56 1.52 1.53 1.52 1.60 1.57 1.57 1.64 1.62 1.66 1.63 1.62 1.67 1.74 1.76 1.90 1.93 1.97 1.99 2.06 1.91 1.65 1.44 1.46 1.36 1.43 1.60 1.56 1.67 1.40
2.00 2.01 2.00 2.00 2.00 1.99 1.95 1.87 1.87 1.81 1.73 1.67 1.60 1.54 1.54 1.57 1.62 1.70 1.68 1.71 1.70 1.67 1.64 1.64 1.64 1.65 1.70 1.78 1.80 1.88 1.94 2.02 2.00 2.06 1.77 1.50 1.58 1.33 1.37 1.35 1.53 1.45 1.55
1.91 2.00 1.90 1.92 1.97 1.97 1.91 1.84 1.78 1.73 1.68 1.68 1.61 1.59 1.60 1.63 1.68 1.69 1.70 1.73 1.69 1.65 1.66 1.67 1.68 1.69 1.66 1.72 1.77 1.79 1.92 1.94 2.06 2.11 1.92 1.59 1.52 1.38 1.25 1.44 1.43 1.47 1.65
1.78 1.89 1.89 1.95 1.94 1.92 1.82 1.75 1.70 1.63 1.64 1.64 1.64 1.63 1.71 1.76 1.80 1.80 1.86 1.77 1.73 1.70 1.73 1.73 1.74 1.72 1.66 1.70 1.77 1.78 1.84 1.92 1.98 2.08 2.13 1.95 1.56 1.42 1.31 1.48 1.21 1.25 1.52
1.76 1.87 1.88 1.91 1.90 1.89 1.82 1.75 1.69 1.68 1.67 1.68 1.69 1.72 1.76 1.78 1.84 1.86 1.80 1.88 1.82 1.80 1.83 1.84 1.77 1.80 1.64 1.63 1.81 1.78 1.83 1.87 2.06 2.11 2.10 2.12 1.66 1.41 1.39 1.35 1.53 1.48 1.44
1.81 1.82 1.81 1.84 1.82 1.82 1.83 1.80 1.74 1.73 1.70 1.67 1.71 1.72 1.72 1.82 1.85 1.85 1.94 1.84 1.88 1.89 1.96 1.99 1.92 1.91 1.84 1.73 1.86 1.86 1.84 1.78 1.92 2.00 2.02 2.11 1.94 1.47 1.49 1.35 1.33 1.46 1.43
1.75 1.77 1.82 1.87 1.84 1.78 1.77 1.81 1.78 1.74 1.68 1.70 1.76 1.79 1.82 1.79 1.73 1.72 1.83 1.91 1.81 1.90 2.01 1.95 1.87 1.88 1.93 1.87 1.80 1.84 1.86 1.98 1.95 1.86 2.04 2.04 2.00 1.82 1.44 1.44 1.31 1.29 1.49
1.66 1.72 1.78 1.80 1.85 1.82 1.71 1.66 1.68 1.67 1.68 1.74 1.77 1.74 1.71 1.88 1.90 1.88 1.79 1.81 1.87 1.80 1.91 1.85 1.86 1.86 1.82 1.88 1.77 1.68 1.73 1.82 1.88 1.92 1.92 1.93 1.94 1.97 1.70 1.54 1.41 1.38 1.35
1.55 1.62 1.69 1.77 1.83 1.79 1.78 1.79 1.77 1.71 1.69 1.71 1.70 1.75 1.78 1.84 1.85 1.78 1.80 1.70 1.71 1.65 1.67 1.62 1.59 1.66 1.80 1.74 1.69 1.64 1.60 1.54 1.66 1.81 1.98 1.76 1.89 1.97 1.99 1.63 1.51 1.47 1.41
1.56 1.59 1.73 1.65 1.76 1.74 1.76 1.74 1.71 1.69 1.68 1.70 1.75 1.75 1.78 1.77 1.78 1.82 1.78 1.72 1.65 1.62 1.71 1.67 1.62 1.58 1.52 1.45 1.41 1.43 1.43 1.41 1.40 1.59 1.88 1.93 1.78 1.91 1.98 1.97 1.73 1.58 1.46
1.48 1.54 1.61 1.66 1.67 1.73 1.83 1.73 1.69 1.66 1.67 1.65 1.70 1.73 1.75 1.73 1.76 1.78 1.78 1.77 1.69 1.71 1.66 1.62 1.57 1.55 1.51 1.47 1.44 1.37 1.29 1.22 1.22 1.25 1.61 1.76 1.89 1.81 1.92 2.09 2.09 1.91 1.57
1.39 1.50 1.56 1.62 1.64 1.66 1.68 1.67 1.68 1.66 1.64 1.65 1.65 1.71 1.69 1.72 1.86 1.84 1.84 1.82 1.72 1.69 1.63 1.58 1.54 1.51 1.49 1.48 1.44 1.29 1.15 1.09 1.04 1.09 1.21 1.46 1.69 1.86 1.87 1.92 2.02 2.08 1.95
1.38 1.42 1.53 1.52 1.61 1.67 1.62 1.64 1.62 1.66 1.67 1.66 1.66 1.61 1.66 1.68 1.96 1.88 1.79 1.71 1.66 1.66 1.59 1.53 1.49 1.47 1.46 1.42 1.25 1.18 1.04 0.98 1.01 1.06 1.08 1.20 1.41 1.65 1.80 1.89 1.92 2.02 2.06
1.33 1.39 1.41 1.49 1.59 1.68 1.67 1.66 1.63 1.64 1.64 1.63 1.62 1.70 1.75 1.92 1.88 1.78 1.79 1.70 1.68 1.69 1.57 1.53 1.56 1.51 1.34 1.23 1.12 1.06 1.11 1.11 1.09 1.05 1.06 1.08 1.24 1.43 1.60 1.76 1.82 1.84 2.01
1.33 1.33 1.43 1.50 1.54 1.55 1.60 1.58 1.61 1.64 1.63 1.63 1.68 1.78 1.91 1.90 1.80 1.75 1.70 1.64 1.69 1.60 1.61 1.53 1.49 1.26 1.17 1.12 1.05 1.07 1.10 1.11 1.14 1.12 1.11 1.07 1.05 1.10 1.43 1.60 1.74 1.78 1.80
1.34 1.38 1.39 1.43 1.43 1.46 1.62 1.63 1.62 1.66 1.80 1.84 1.73 1.73 1.69 1.74 1.71 1.70 1.65 1.62 1.68 1.67 1.75 1.66 1.46 1.15 1.00 0.97 0.99 0.98 1.11 1.11 1.12 1.15 1.14 1.21 1.26 1.22 1.11 1.37 1.43 1.66 1.80
1.33 1.40 1.40 1.39 1.46 1.56 1.72 1.81 1.78 1.71 1.66 1.63 1.55 1.65 1.65 1.78 1.67 1.72 1.64 1.55 1.54 1.57 1.49 1.42 1.16 1.10 1.02 0.97 0.90 0.92 1.07 1.12 1.14 1.17 1.18 1.12 1.09 1.23 1.32 1.30 1.27 1.44 1.64
1.32 1.36 1.40 1.37 1.46 1.72 1.68 1.52 1.46 1.42 1.49 1.52 1.55 1.71 1.64 1.61 1.59 1.58 1.52 1.48 1.47 1.39 1.17 1.08 0.98 0.96 0.88 1.07 0.88 0.96 1.03 1.08 1.09 1.11 1.14 0.97 0.96 1.02 1.16 1.32 1.41 1.35 1.48
1.27 1.34 1.37 1.39 1.44 1.57 1.57 1.52 1.47 1.44 1.44 1.54 1.54 1.62 1.62 1.53 1.49 1.43 1.42 1.38 1.25 1.05 1.07 0.96 0.94 0.90 0.95 1.02 0.91 0.87 0.77 0.98 1.05 1.03 0.94 0.84 0.89 0.95 1.03 1.11 1.23 1.34 1.42
1.23 1.30 1.31 1.36 1.41 1.54 1.57 1.62 1.54 1.51 1.44 1.38 1.36 1.42 1.46 1.47 1.49 1.46 1.37 1.17 1.12 0.90 0.87 1.00 1.03 0.93 0.87 1.06 1.07 0.84 0.72 0.71 0.79 0.99 0.99 0.85 0.83 0.86 0.89 0.94 1.06 1.10 1.12
1.18 1.30 1.34 1.35 1.38 1.50 1.58 1.41 1.31 1.22 1.14 1.22 1.29 1.33 1.38 1.40 1.38 1.36 1.26 1.16 0.92 0.93 0.97 1.00 0.98 0.94 0.92 0.90 0.97 0.97 0.91 0.89 0.74 0.73 0.94 0.91 0.90 0.87 0.89 0.88 0.91 0.98 0.97
1.26 1.27 1.25 1.29 1.37 1.43 1.46 1.39 1.37 1.27 1.26 1.29 1.31 1.34 1.36 1.38 1.36 1.23 1.25 1.07 0.94 0.94 1.05 0.99 0.95 0.94 0.99 0.91 0.91 0.94 0.97 0.88 0.87 0.77 0.70 0.83 0.94 0.98 0.95 0.92 0.90 0.90 0.93
1.30 1.30 1.21 1.21 1.27 1.39 1.39 1.38 1.35 1.31 1.29 1.26 1.30 1.22 1.17 1.25 1.29 1.31 1.31 1.15 1.01 1.02 1.05 1.00 0.93 0.92 0.90 0.94 1.00 1.08 0.91 0.84 0.83 0.81 0.74 0.78 0.82 0.87 0.95 0.95 0.95 0.89 0.91

GFSSE_prec_pwat_009.txt.gz
Precipitable_Water
2.25 2.35 2.39 2.34 2.25 2.19 2.15 2.11 2.04 1.92 1.82 1.72 1.69 1.69 1.63 1.64 1.61 1.57 1.58 1.48 1.49 1.53 1.61 1.63 1.67 1.72 1.78 1.83 1.87 2.04 1.89 1.82 1.66 1.39 1.46 1.52 1.42 1.33 1.17 1.54 1.78 1.62 1.45
2.25 2.28 2.30 2.28 2.22 2.12 2.10 2.01 1.93 1.81 1.74 1.69 1.69 1.64 1.62 1.60 1.61 1.61 1.49 1.52 1.53 1.55 1.58 1.62 1.68 1.70 1.75 1.87 1.95 2.04 2.07 1.99 1.76 1.44 1.62 1.75 1.52 1.40 1.30 1.77 1.79 1.39 1.63
2.17 2.21 2.21 2.17 2.09 2.00 1.90 1.88 1.85 1.76 1.71 1.67 1.64 1.59 1.57 1.57 1.58 1.48 1.49 1.54 1.55 1.55 1.55 1.61 1.68 1.68 1.73 1.85 1.93 1.94 1.98 2.00 1.89 1.53 1.59 1.77 1.49 1.41 1.53 1.65 1.73 1.82 1.62
2.07 2.11 2.10 2.09 2.08 2.06 1.96 1.88 1.80 1.73 1.66 1.60 1.59 1.56 1.52 1.54 1.58 1.51 1.54 1.59 1.57 1.57 1.57 1.59 1.65 1.67 1.72 1.79 1.88 1.91 1.98 1.98 1.95 1.74 1.66 1.83 1.67 1.28 1.56 1.52 1.73 1.53 1.77
2.04 2.08 2.08 2.07 2.01 1.98 1.94 1.84 1.77 1.71 1.59 1.58 1.59 1.54 1.54 1.58 1.66 1.65 1.67 1.68 1.61 1.58 1.58 1.61 1.65 1.66 1.71 1.76 1.77 1.88 1.94 1.96 2.06 2.00 1.85 1.57 1.80 1.21 1.31 1.48 1.51 1.45 1.84
1.95 2.03 1.97 1.99 1.96 1.90 1.88 1.82 1.74 1.69 1.67 1.63 1.59 1.55 1.61 1.66 1.69 1.70 1.73 1.65 1.62 1.61 1.62 1.65 1.66 1.66 1.69 1.76 1.79 1.83 1.90 1.91 2.10 2.07 2.00 1.44 1.58 1.22 1.35 1.59 1.59 1.60 1.60
1.82 1.87 1.86 1.92 1.93 1.87 1.78 1.75 1.71 1.67 1.67 1.63 1.60 1.65 1.72 1.77 1.81 1.86 1.80 1.72 1.69 1.68 1.74 1.74 1.72 1.70 1.60 1.71 1.79 1.82 1.84 1.98 2.17 2.11 2.11 2.06 1.41 1.33 1.26 1.28 1.36 1.46 1.54
1.79 1.80 1.81 1.85 1.85 1.78 1.73 1.69 1.58 1.60 1.63 1.68 1.68 1.69 1.73 1.77 1.81 1.84 1.80 1.85 1.77 1.82 1.84 1.90 1.83 1.76 1.67 1.70 1.80 1.77 1.72 1.82 2.09 2.37 2.13 2.14 1.68 1.35 1.30 1.39 1.34 1.29 1.48
1.76 1.79 1.78 1.81 1.82 1.78 1.72 1.65 1.63 1.65 1.67 1.68 1.70 1.73 1.72 1.78 1.81 1.78 1.80 1.77 1.83 1.92 1.98 1.94 1.87 1.91 1.87 1.76 1.82 1.84 1.82 1.93 2.02 1.92 2.03 2.20 1.94 1.54 1.42 1.31 1.44 1.38 1.50
1.71 1.76 1.70 1.75 1.77 1.77 1.73 1.70 1.70 1.67 1.64 1.66 1.69 1.66 1.66 1.70 1.64 1.67 1.83 1.90 1.81 1.83 1.96 1.90 1.82 1.81 1.81 1.82 1.73 1.64 1.82 1.95 2.01 1.91 1.99 2.03 1.96 1.79 1.54 1.43 1.33 1.40 1.37
1.65 1.63 1.72 1.70 1.76 1.78 1.78 1.76 1.72 1.67 1.63 1.69 1.70 1.72 1.67 1.97 1.94 1.91 1.85 1.67 1.75 1.73 1.72 1.65 1.63 1.66 1.87 1.94 1.85 1.69 1.75 1.85 1.67 2.15 2.08 1.84 1.89 2.01 1.65 1.62 1.52 1.29 1.47
1.56 1.68 1.71 1.78 1.68 1.67 1.70 1.68 1.64 1.63 1.66 1.67 1.73 1.73 1.73 1.93 1.85 1.66 1.77 1.61 1.60 1.57 1.57 1.56 1.50 1.58 1.69 1.71 1.63 1.52 1.56 1.45 1.57 1.66 2.06 1.91 1.75 1.96 2.04 1.66 1.58 1.56 1.40
1.48 1.62 1.70 1.76 1.75 1.70 1.73 1.62 1.67 1.68 1.70 1.70 1.76 1.79 1.77 1.84 1.81 1.82 1.82 2.05 1.76 1.68 2.19 1.73 1.80 1.69 1.56 1.50 1.50 1.55 1.44 1.36 1.34 1.43 1.64 1.87 1.84 1.83 2.02 2.01 1.70 1.62 1.54
1.46 1.54 1.57 1.73 1.76 1.74 1.78 1.63 1.69 1.67 1.66 1.67 1.70 1.78 1.81 1.74 1.73 1.67 1.96 1.92 1.94 1.81 1.67 1.80 1.63 1.58 1.59 1.52 1.52 1.47 1.38 1.29 1.24 1.17 1.55 1.57 1.70 1.82 1.90 2.02 2.10 1.82 1.66
1.44 1.53 1.53 1.64 1.61 1.71 1.76 1.65 1.68 1.66 1.61 1.66 1.71 1.74 1.79 1.82 1.82 1.83 1.85 1.69 1.71 1.69 1.71 1.64 1.60 1.53 1.52 1.63 1.53 1.30 1.19 1.09 1.06 1.05 1.21 1.30 1.45 1.66 1.80 1.87 2.02 2.14 1.96
1.41 1.44 1.53 1.58 1.61 1.63 1.64 1.72 1.68 1.68 1.80 1.61 1.70 1.70 1.76 1.81 1.94 1.84 1.84 1.77 1.73 1.68 1.68 1.62 1.62 1.49 1.48 1.44 1.32 1.26 1.13 1.18 1.15 1.13 1.15 1.31 1.25 1.40 1.69 1.81 1.86 1.89 2.06
1.39 1.46 1.48 1.49 1.63 1.62 1.63 1.63 1.61 1.66 1.60 1.66 1.60 1.75 1.75 1.87 1.80 1.79 1.78 1.76 1.69 1.69 1.68 1.70 1.74 1.60 1.35 1.27 1.17 1.12 1.17 1.20 1.19 1.15 1.13 1.17 1.38 1.32 1.39 1.64 1.77 1.84 1.87
1.35 1.36 1.42 1.47 1.52 1.60 1.67 1.69 1.64 1.61 1.72 1.62 1.69 1.85 1.82 1.85 1.85 1.79 1.68 1.78 1.73 1.76 1.76 1.70 1.66 1.62 1.27 1.08 1.04 1.10 1.11 1.15 1.19 1.17 1.24 1.14 1.19 1.24 1.39 1.45 1.65 1.71 1.76
1.34 1.35 1.35 1.45 1.51 1.53 1.59 1.65 1.60 1.66 1.74 1.86 1.86 1.75 1.98 1.80 1.82 1.73 1.66 1.66 1.67 1.66 1.72 1.58 1.54 1.47 1.12 0.99 0.98 0.98 1.12 1.18 1.17 1.27 1.17 1.26 1.29 1.32 1.27 1.40 1.40 1.47 1.66
1.36 1.39 1.42 1.45 1.49 1.53 1.60 1.79 1.75 1.69 1.80 1.72 1.70 1.60 1.69 1.81 1.73 1.70 1.64 1.76 1.67 1.59 1.43 1.68 1.45 1.10 0.95 1.04 0.96 0.88 1.11 1.21 1.17 1.20 1.25 1.17 1.10 1.25 1.42 1.40 1.44 1.43 1.48
1.31 1.34 1.39 1.39 1.46 1.48 1.63 1.73 1.62 1.53 1.58 1.55 1.54 1.89 1.79 1.68 1.63 1.67 1.65 1.67 1.59 1.47 1.51 1.26 1.00 0.94 0.99 1.14 0.93 1.11 1.07 1.11 1.15 1.16 1.11 0.99 1.02 1.04 1.15 1.29 1.42 1.51 1.66
1.23 1.29 1.32 1.33 1.38 1.44 1.60 1.62 1.58 1.51 1.54 1.50 1.58 1.60 1.63 1.69 1.68 1.56 1.49 1.41 1.41 1.33 1.12 1.02 0.92 0.89 0.99 1.11 0.95 0.90 0.88 1.08 1.16 1.14 0.98 0.88 0.90 0.98 1.07 1.15 1.26 1.28 1.43
1.20 1.23 1.31 1.35 1.39 1.47 1.62 1.65 1.65 1.74 1.49 1.55 1.51 1.56 1.51 1.50 1.49 1.46 1.48 1.42 1.32 1.01 0.80 1.03 1.02 0.92 0.90 1.10 1.06 0.90 0.81 0.88 0.93 1.09 1.09 0.94 0.87 0.87 0.92 0.99 1.10 1.09 1.08
1.20 1.32 1.38 1.39 1.37 1.46 1.54 1.58 1.57 1.49 1.28 1.27 1.29 1.36 1.43 1.56 1.42 1.47 1.48 1.28 1.12 0.92 1.03 1.01 1.01 0.94 0.87 0.91 1.01 1.03 0.87 0.91 0.75 0.82 1.06 1.07 1.02 0.97 0.98 0.95 0.97 1.04 1.00
1.26 1.32 1.38 1.42 1.41 1.44 1.46 1.55 1.48 1.39 1.33 1.39 1.34 1.38 1.38 1.53 1.37 1.40 1.35 1.29 1.10 0.92 1.13 1.11 1.01 0.94 1.09 0.90 0.92 0.96 1.04 0.90 0.89 0.72 0.73 0.92 1.05 1.09 1.07 0.98 0.97 0.95 1.00
1.37 1.40 1.43 1.41 1.38 1.40 1.46 1.47 1.42 1.42 1.29 1.30 1.27 1.35 1.37 1.33 1.38 1.36 1.33 1.31 1.17 1.06 1.21 1.18 1.12 1.02 0.95 1.01 0.99 1.00 0.96 0.88 0.91 0.89 0.81 0.82 0.87 0.96 1.06 1.06 1.03 1.05 0.99

GFSSE_prec_pwat_012.txt.gz
Precipitable_Water
2.24 2.32 2.34 2.31 2.30 2.31 2.24 2.07 1.98 1.86 1.75 1.66 1.64 1.63 1.60 1.57 1.54 1.50 1.42 1.47 1.52 1.63 1.67 1.65 1.73 1.78 1.85 1.88 2.01 2.01 1.83 1.68 1.44 1.57 1.59 1.52 1.32 1.13 1.43 1.69 1.72 1.47 1.57
2.30 2.32 2.33 2.27 2.22 2.24 2.06 1.92 1.82 1.75 1.67 1.62 1.60 1.58 1.57 1.61 1.58 1.42 1.48 1.52 1.57 1.60 1.65 1.65 1.67 1.73 1.84 1.96 1.94 1.97 1.96 1.74 1.53 1.65 1.71 1.57 1.43 1.32 1.72 1.75 1.44 1.44 1.61
2.22 2.24 2.23 2.17 2.09 1.96 1.85 1.76 1.71 1.66 1.65 1.62 1.58 1.60 1.61 1.58 1.46 1.48 1.52 1.55 1.57 1.60 1.63 1.65 1.65 1.71 1.78 1.85 1.86 1.90 1.91 1.87 1.67 1.57 2.00 1.72 1.41 1.47 1.62 1.69 1.56 1.61 1.57
2.13 2.13 2.06 2.01 1.91 1.84 1.83 1.73 1.65 1.62 1.63 1.59 1.55 1.57 1.59 1.55 1.47 1.51 1.58 1.57 1.57 1.58 1.58 1.64 1.66 1.66 1.73 1.77 1.81 1.87 1.91 1.88 1.85 1.73 1.93 1.64 1.33 1.41 1.45 1.77 1.65 1.60 1.70
1.99 2.01 1.98 1.96 1.91 1.85 1.81 1.73 1.69 1.65 1.61 1.60 1.58 1.58 1.58 1.58 1.58 1.63 1.66 1.60 1.57 1.58 1.58 1.62 1.65 1.65 1.70 1.76 1.78 1.84 1.83 1.97 1.99 1.88 1.64 1.66 1.36 1.27 1.33 1.49 1.32 1.69 1.69
2.00 2.00 2.00 1.98 1.93 1.88 1.80 1.73 1.70 1.64 1.61 1.61 1.57 1.59 1.58 1.62 1.64 1.70 1.66 1.68 1.63 1.64 1.65 1.66 1.67 1.60 1.63 1.69 1.76 1.82 1.88 1.99 2.11 2.17 1.91 1.52 1.32 1.20 1.43 1.45 1.53 1.63 1.48
1.96 1.92 1.91 1.89 1.87 1.85 1.79 1.72 1.73 1.69 1.64 1.61 1.58 1.64 1.65 1.71 1.75 1.76 1.73 1.76 1.68 1.74 1.74 1.76 1.70 1.58 1.56 1.67 1.69 1.70 1.77 2.05 2.19 2.07 2.11 1.86 1.32 1.23 1.23 1.40 1.45 1.44 1.39
1.77 1.80 1.84 1.86 1.83 1.78 1.75 1.73 1.70 1.68 1.67 1.61 1.62 1.64 1.68 1.73 1.78 1.80 1.80 1.79 1.78 1.80 1.88 1.83 1.82 1.77 1.66 1.67 1.69 1.72 1.79 1.91 1.93 1.87 2.21 2.01 1.54 1.34 1.25 1.21 1.25 1.40 1.36
1.69 1.73 1.79 1.81 1.79 1.73 1.71 1.62 1.63 1.64 1.65 1.63 1.63 1.64 1.67 1.73 1.74 1.73 1.78 1.73 1.75 1.88 1.90 1.83 1.75 1.78 1.76 1.66 1.59 1.75 1.92 1.91 2.18 2.40 2.19 2.05 1.87 1.55 1.36 1.34 1.36 1.33 1.34
1.78 1.68 1.72 1.75 1.74 1.67 1.62 1.58 1.57 1.58 1.59 1.59 1.58 1.57 1.58 1.65 1.69 1.85 1.83 1.78 1.75 1.75 1.78 1.73 1.70 1.72 1.82 1.83 1.72 1.77 1.82 1.92 1.99 1.62 2.42 1.83 1.92 1.79 1.55 1.34 1.42 1.41 1.37
1.62 1.60 1.69 1.69 1.71 1.68 1.62 1.57 1.60 1.59 1.56 1.57 1.54 1.54 1.61 1.92 1.82 2.17 1.84 1.75 1.60 1.59 1.57 1.50 1.49 1.65 1.70 1.75 1.65 1.58 1.69 1.65 1.79 2.03 1.94 1.99 1.91 2.00 1.56 1.50 1.43 1.41 1.46
1.43 1.58 1.71 1.62 1.63 1.68 1.66 1.61 1.61 1.58 1.51 1.55 1.59 1.58 1.61 2.28 1.85 1.79 2.10 1.64 1.67 1.74 1.32 1.51 1.70 1.82 1.71 1.58 1.59 1.57 1.78 1.31 1.59 1.64 1.70 1.65 1.95 1.89 2.06 1.60 1.54 1.38 1.45
1.50 1.68 1.65 1.58 1.71 1.62 1.70 1.53 1.52 1.56 1.59 1.61 1.68 1.78 1.75 2.07 1.85 2.07 1.84 1.65 2.08 2.11 1.57 1.70 1.85 1.80 1.57 1.44 1.41 1.43 1.30 1.34 1.53 1.66 1.53 1.55 1.79 1.81 1.94 2.05 1.70 1.61 1.48
1.48 1.64 1.66 1.62 1.61 1.78 1.64 1.51 1.56 1.57 1.61 1.64 1.72 1.70 1.60 1.72 1.75 1.95 2.04 2.11 1.92 1.71 2.33 1.72 1.58 1.62 1.45 1.45 1.65 1.60 1.33 1.20 1.20 1.38 1.44 1.44 1.59 1.71 1.77 1.91 2.02 1.77 1.72
1.37 1.56 1.58 1.62 1.64 1.68 1.66 1.59 1.68 1.68 1.66 1.77 1.72 1.73 1.66 1.68 1.83 1.90 1.79 1.76 1.61 1.72 1.59 1.58 1.50 1.56 1.45 1.38 1.30 1.25 1.12 1.07 1.12 1.09 1.46 1.33 1.35 1.39 1.71 1.77 1.91 2.12 1.96
1.35 1.49 1.51 1.57 1.55 1.60 1.60 1.57 1.77 1.50 1.75 1.59 1.73 1.84 1.71 1.74 1.71 1.78 1.70 1.64 1.61 1.68 1.64 1.64 1.57 1.53 1.49 1.40 1.37 1.21 1.06 1.23 1.16 1.22 1.17 1.36 1.26 1.33 1.42 1.74 1.82 1.85 1.99
1.39 1.50 1.51 1.57 1.50 1.44 1.53 1.61 1.59 1.65 1.58 1.63 1.51 1.61 1.87 1.81 1.59 1.74 1.69 1.70 1.71 1.74 1.73 1.63 1.67 1.67 1.54 1.41 1.30 1.10 1.15 1.15 1.22 1.09 1.06 1.26 1.38 1.30 1.36 1.43 1.68 1.76 1.78
1.36 1.35 1.44 1.47 1.53 1.46 1.51 1.59 1.47 1.47 1.59 1.55 1.76 1.82 1.81 1.76 1.69 1.68 1.67 1.81 1.93 1.64 1.83 1.73 1.65 1.54 1.47 1.26 1.00 1.07 1.02 1.14 1.17 1.22 1.33 1.07 1.33 1.36 1.34 1.38 1.43 1.59 1.68
1.32 1.33 1.33 1.39 1.48 1.51 1.49 1.50 1.56 1.59 1.62 1.71 1.72 1.72 1.80 1.94 1.85 1.66 1.60 1.69 1.79 1.61 1.48 1.57 1.58 1.55 1.23 0.99 0.91 1.05 1.06 1.18 1.15 1.28 1.15 1.35 1.30 1.33 1.49 1.42 1.38 1.39 1.52
1.30 1.32 1.30 1.33 1.44 1.53 1.54 1.49 1.70 1.49 1.73 1.67 1.68 1.91 1.84 1.84 1.64 1.74 1.62 1.60 1.63 1.45 1.53 1.44 1.48 1.32 0.95 0.96 1.00 0.89 1.07 1.17 1.08 1.17 1.26 1.18 1.09 1.30 1.36 1.50 1.50 1.57 1.50
1.30 1.32 1.31 1.27 1.37 1.58 1.53 1.51 1.54 1.58 1.58 1.57 1.52 1.61 1.69 1.85 1.72 1.65 1.57 1.62 1.66 1.45 1.41 1.39 1.10 0.89 0.94 1.06 0.97 1.06 1.14 1.22 1.17 1.19 1.01 1.02 1.03 1.07 1.16 1.24 1.49 1.60 1.55
1.21 1.25 1.27 1.27 1.34 1.39 1.46 1.53 1.54 1.52 1.48 1.53 1.66 1.61 1.68 1.66 1.57 1.57 1.43 1.42 1.48 1.37 1.22 1.07 0.91 0.83 1.00 1.09 0.84 0.92 0.96 1.16 1.21 1.13 1.05 0.89 0.88 0.99 1.07 1.14 1.20 1.25 1.38
1.15 1.19 1.22 1.29 1.33 1.36 1.42 1.46 1.50 1.77 1.61 1.53 1.53 1.50 1.51 1.53 1.48 1.61 1.54 1.48 1.46 1.31 1.04 0.97 1.00 0.90 0.91 1.17 1.09 0.97 0.87 0.89 1.05 1.17 1.10 1.01 0.96 0.88 0.90 1.01 1.01 1.01 1.09
1.17 1.23 1.28 1.33 1.34 1.38 1.37 1.41 1.39 1.42 1.44 1.48 1.45 1.51 1.41 1.56 1.46 1.40 1.32 1.41 1.29 1.07 1.08 1.04 0.99 0.87 0.92 0.99 1.12 1.04 0.96 1.01 0.91 0.91 1.13 1.11 1.10 1.00 1.02 0.94 1.00 1.02 0.99
1.23 1.26 1.29 1.35 1.38 1.38 1.35 1.40 1.51 1.45 1.42 1.38 1.22 1.26 1.53 1.54 1.40 1.49 1.44 1.35 1.17 0.85 1.07 1.12 1.08 0.85 1.03 0.96 0.95 1.06 1.06 0.89 0.83 0.74 0.78 0.99 1.11 1.14 1.12 1.00 0.96 0.96 0.98
1.31 1.42 1.37 1.40 1.39 1.43 1.42 1.39 1.45 1.48 1.33 1.27 1.39 1.42 1.38 1.43 1.39 1.36 1.43 1.35 1.20 1.05 1.29 1.25 1.18 1.08 1.02 1.03 0.99 1.01 1.03 0.90 0.93 0.93 0.86 0.87 0.87 0.99 1.14 1.16 1.13 1.06 1.07

GFSSE_prec_pwat_015.txt.gz
Precipitable_Water
2.19 2.32 2.36 2.32 2.27 2.28 2.11 1.91 1.78 1.70 1.67 1.62 1.64 1.56 1.49 1.48 1.44 1.44 1.44 1.54 1.58 1.62 1.65 1.69 1.72 1.79 1.85 1.96 1.96 1.82 1.69 1.55 1.59 1.53 1.41 1.42 1.22 1.55 1.68 1.61 1.51 1.54 1.48
2.25 2.35 2.34 2.25 2.24 2.12 2.03 1.83 1.75 1.64 1.61 1.58 1.58 1.54 1.54 1.45 1.43 1.48 1.49 1.54 1.57 1.64 1.65 1.70 1.74 1.76 1.89 1.88 1.90 1.92 1.87 1.63 1.63 1.70 1.66 1.49 1.40 1.80 1.72 1.56 1.59 1.48 1.39
2.22 2.27 2.22 2.18 2.08 1.97 1.88 1.76 1.68 1.61 1.58 1.57 1.57 1.58 1.50 1.39 1.46 1.50 1.52 1.52 1.57 1.63 1.66 1.68 1.70 1.78 1.77 1.84 1.90 1.89 1.92 1.85 1.63 1.95 1.82 1.48 1.54 1.74 1.66 1.52 1.58 1.46 1.39
2.10 2.11 2.10 2.03 1.89 1.81 1.74 1.66 1.61 1.58 1.55 1.55 1.57 1.54 1.46 1.45 1.52 1.55 1.54 1.55 1.55 1.58 1.65 1.69 1.66 1.72 1.78 1.78 1.86 1.92 1.93 1.93 1.88 1.78 1.70 1.50 1.46 1.46 1.81 1.71 1.61 1.56 1.47
1.98 1.98 1.96 1.86 1.77 1.71 1.61 1.57 1.55 1.57 1.55 1.55 1.53 1.56 1.57 1.57 1.63 1.62 1.59 1.57 1.58 1.59 1.66 1.67 1.65 1.67 1.71 1.78 1.83 1.85 1.92 2.00 2.04 1.83 1.60 1.54 1.33 1.38 1.57 1.37 1.69 1.60 1.66
1.84 1.86 1.87 1.79 1.74 1.68 1.61 1.57 1.55 1.54 1.57 1.56 1.54 1.58 1.64 1.64 1.67 1.62 1.69 1.64 1.66 1.70 1.73 1.72 1.58 1.59 1.72 1.75 1.74 1.84 1.97 2.07 2.11 2.13 1.66 1.50 1.22 1.38 1.48 1.45 1.73 1.53 1.52
1.82 1.89 1.90 1.80 1.74 1.68 1.64 1.61 1.56 1.56 1.58 1.58 1.60 1.65 1.73 1.73 1.72 1.73 1.76 1.69 1.72 1.79 1.83 1.78 1.67 1.67 1.67 1.70 1.77 1.77 1.94 2.14 2.25 2.21 2.13 1.59 1.32 1.34 1.53 1.57 1.60 1.43 1.43
1.76 1.81 1.81 1.79 1.76 1.70 1.64 1.64 1.61 1.60 1.61 1.61 1.64 1.67 1.71 1.72 1.72 1.80 1.75 1.74 1.83 1.90 1.84 1.81 1.82 1.74 1.67 1.67 1.81 1.86 1.92 2.00 2.02 1.92 2.32 1.98 1.43 1.27 1.37 1.39 1.43 1.40 1.46
1.75 1.74 1.74 1.75 1.75 1.71 1.67 1.66 1.68 1.66 1.64 1.63 1.67 1.67 1.68 1.71 1.72 1.77 1.82 1.77 1.78 1.82 1.76 1.74 1.74 1.84 1.81 1.84 1.86 1.91 1.94 1.90 1.84 1.84 1.76 2.09 1.85 1.42 1.24 1.36 1.34 1.37 1.43
1.67 1.69 1.68 1.70 1.67 1.65 1.64 1.63 1.62 1.61 1.62 1.62 1.62 1.61 1.58 1.69 1.74 1.86 1.79 1.80 1.68 1.66 1.63 1.68 1.77 1.85 1.86 1.81 1.85 1.85 1.82 1.81 1.74 1.70 1.66 1.93 2.01 1.73 1.40 1.37 1.38 1.40 1.37
1.63 1.59 1.65 1.62 1.58 1.57 1.50 1.56 1.56 1.57 1.55 1.57 1.56 1.51 1.62 1.87 1.85 1.87 1.88 1.82 1.67 1.61 1.64 1.54 1.61 1.60 1.59 1.58 1.67 1.71 1.74 1.55 1.38 1.58 1.69 1.87 1.91 2.01 1.61 1.47 1.43 1.49 1.43
1.45 1.57 1.60 1.57 1.52 1.49 1.46 1.51 1.48 1.48 1.46 1.47 1.43 1.53 1.79 1.71 1.86 2.00 1.91 1.75 1.85 1.64 1.45 1.51 1.78 1.78 1.64 1.49 1.48 1.50 1.44 1.49 1.53 1.43 1.50 1.80 1.90 1.96 2.00 1.57 1.50 1.45 1.53
1.46 1.55 1.57 1.55 1.57 1.51 1.44 1.43 1.45 1.46 1.48 1.52 1.58 1.66 1.72 1.90 2.08 1.97 1.86 1.87 1.92 1.39 1.59 1.71 1.56 1.62 1.50 1.49 1.48 1.52 1.38 1.43 1.40 1.50 1.35 1.44 1.73 1.85 1.94 1.92 1.68 1.52 1.47
1.39 1.54 1.58 1.55 1.52 1.57 1.59 1.51 1.38 1.50 1.54 1.60 1.62 1.70 1.72 1.83 1.81 1.99 1.83 1.84 1.83 1.66 1.54 1.58 1.48 1.58 1.53 1.46 1.34 1.28 1.20 1.04 1.38 1.35 1.40 1.33 1.42 1.58 1.81 1.97 1.90 1.75 1.62
1.38 1.53 1.54 1.61 1.50 1.54 1.59 1.49 1.55 1.56 1.62 1.69 1.75 1.79 1.72 1.66 1.70 1.76 1.78 1.69 1.67 1.63 1.63 1.55 1.62 1.56 1.46 1.43 1.41 1.26 1.08 1.12 1.17 1.24 1.26 1.28 1.36 1.42 1.63 1.79 1.89 1.96 1.83
1.42 1.42 1.53 1.50 1.45 1.52 1.55 1.56 1.64 1.67 1.72 1.68 1.77 1.84 1.84 1.77 1.70 1.66 1.76 1.72 1.74 1.68 1.83 1.71 1.58 1.54 1.46 1.42 1.36 1.26 1.12 1.19 1.16 1.22 1.24 1.26 1.36 1.42 1.44 1.67 1.77 1.82 2.02
1.41 1.48 1.44 1.41 1.46 1.40 1.44 1.52 1.66 1.66 1.59 1.60 1.67 1.76 1.77 1.79 1.68 1.66 1.67 1.77 1.76 1.75 1.84 1.66 1.67 1.60 1.44 1.35 1.18 1.10 1.06 1.11 1.20 1.08 1.13 1.26 1.34 1.36 1.42 1.48 1.63 1.73 1.72
1.39 1.38 1.45 1.48 1.41 1.37 1.40 1.53 1.51 1.56 1.52 1.55 1.66 1.78 1.83 1.78 1.72 1.70 1.65 1.64 1.85 1.77 1.63 1.56 1.58 1.50 1.37 1.20 0.89 1.04 1.00 1.14 1.18 1.19 1.25 1.23 1.31 1.34 1.37 1.43 1.44 1.55 1.65
1.31 1.34 1.35 1.39 1.35 1.37 1.40 1.43 1.47 1.44 1.53 1.55 1.62 1.68 1.83 1.90 1.91 1.63 1.59 1.60 1.64 1.76 1.59 1.49 1.43 1.41 1.17 0.98 0.86 1.01 1.07 1.09 1.19 1.28 1.21 1.26 1.35 1.33 1.38 1.41 1.39 1.37 1.49
1.32 1.34 1.33 1.31 1.34 1.42 1.42 1.43 1.43 1.41 1.47 1.48 1.54 1.58 1.79 1.81 1.76 1.58 1.62 1.57 1.62 1.60 1.45 1.38 1.19 1.17 0.93 0.86 0.99 0.93 1.01 1.11 1.14 1.18 1.25 1.10 1.23 1.35 1.41 1.36 1.51 1.56 1.47
1.26 1.24 1.25 1.27 1.32 1.41 1.41 1.37 1.34 1.31 1.48 1.51 1.55 1.66 1.53 1.56 1.64 1.64 1.57 1.48 1.55 1.42 1.22 1.18 1.12 0.81 0.84 0.98 0.95 1.00 1.04 1.19 1.14 1.10 1.11 1.09 1.07 1.13 1.27 1.26 1.32 1.49 1.55
1.14 1.18 1.20 1.22 1.34 1.38 1.39 1.43 1.46 1.50 1.59 1.54 1.47 1.42 1.54 1.60 1.63 1.53 1.42 1.33 1.33 1.35 1.21 1.07 0.88 0.74 0.92 1.01 0.79 0.85 0.87 1.10 1.18 1.12 1.08 1.01 1.01 1.03 1.03 1.08 1.10 1.21 1.32
1.08 1.10 1.13 1.16 1.28 1.35 1.38 1.44 1.42 1.46 1.55 1.48 1.47 1.51 1.68 1.59 1.52 1.40 1.42 1.35 1.29 1.28 1.17 1.07 0.89 0.86 0.88 1.03 0.99 0.87 0.84 0.81 1.07 1.07 1.10 1.04 1.04 0.99 1.00 0.93 0.95 1.01 1.13
1.05 1.14 1.16 1.20 1.24 1.32 1.38 1.31 1.29 1.22 1.20 1.42 1.46 1.39 1.44 1.55 1.45 1.45 1.33 1.28 1.27 1.27 1.22 1.05 1.10 0.97 1.07 0.97 1.03 1.00 0.97 1.00 0.87 0.88 1.04 0.98 1.09 0.99 1.03 1.04 1.04 1.03 1.05
1.17 1.15 1.16 1.20 1.24 1.30 1.33 1.29 1.25 1.19 1.26 1.47 1.47 1.42 1.55 1.49 1.53 1.45 1.30 1.30 1.34 1.28 1.23 1.22 1.18 1.07 1.24 1.15 1.08 1.00 0.93 0.88 0.98 0.85 0.82 0.92 1.08 1.10 1.09 1.04 1.09 1.08 1.06
1.28 1.34 1.32 1.23 1.25 1.32 1.32 1.29 1.20 1.18 1.26 1.31 1.28 1.24 1.33 1.41 1.40 1.38 1.46 1.49 1.42 1.24 1.19 1.31 1.36 1.32 1.31 1.35 1.25 1.17 1.04 0.86 0.83 0.82 0.81 0.84 0.88 1.06 1.14 1.13 1.13 1.13 1.13

GFSSE_prec_pwat_021.txt.gz
Precipitable_Water
2.19 2.27 2.28 2.31 2.29 2.20 2.05 1.83 1.64 1.55 1.52 1.48 1.43 1.37 1.37 1.35 1.43 1.50 1.55 1.55 1.56 1.64 1.72 1.84 1.89 1.97 1.96 1.86 1.80 1.75 1.64 1.62 1.53 1.38 1.36 1.48 1.49 1.47 1.37 1.52 1.49 1.40 1.54
2.23 2.24 2.26 2.23 2.20 2.04 1.83 1.61 1.54 1.52 1.48 1.43 1.40 1.40 1.35 1.39 1.46 1.53 1.59 1.60 1.62 1.66 1.73 1.75 1.83 1.88 1.95 1.95 1.87 1.79 1.74 1.77 1.78 1.49 1.59 1.88 1.77 1.67 1.48 1.44 1.34 1.32 1.41
2.12 2.19 2.20 2.18 2.05 1.82 1.71 1.60 1.56 1.50 1.46 1.44 1.39 1.37 1.40 1.43 1.46 1.55 1.60 1.61 1.64 1.64 1.68 1.77 1.74 1.82 1.88 1.90 1.89 1.86 1.81 1.74 1.65 1.33 1.52 1.75 1.51 1.53 1.59 1.36 1.39 1.47 1.52
2.11 2.15 2.11 2.08 1.84 1.73 1.63 1.59 1.54 1.52 1.49 1.43 1.36 1.46 1.51 1.51 1.52 1.54 1.59 1.60 1.62 1.62 1.65 1.67 1.74 1.81 1.88 1.93 1.92 1.95 1.93 1.86 1.60 1.25 1.39 1.59 1.84 1.70 1.60 1.46 1.49 1.67 1.62
2.06 2.09 2.07 1.92 1.72 1.62 1.59 1.54 1.54 1.55 1.48 1.41 1.44 1.56 1.60 1.58 1.61 1.58 1.59 1.63 1.66 1.58 1.64 1.67 1.71 1.75 1.85 1.86 1.92 1.99 2.07 1.97 1.76 1.34 1.28 1.33 1.63 1.60 1.64 1.52 1.44 1.55 1.60
1.99 2.00 1.97 1.74 1.62 1.56 1.54 1.52 1.54 1.54 1.52 1.51 1.53 1.62 1.62 1.69 1.71 1.66 1.66 1.68 1.68 1.60 1.66 1.65 1.66 1.72 1.81 1.83 1.93 2.07 2.10 1.89 1.98 1.83 1.14 1.31 1.41 1.48 1.66 1.53 1.73 1.65 1.53
1.86 1.87 1.81 1.69 1.58 1.56 1.53 1.52 1.52 1.51 1.51 1.57 1.61 1.68 1.73 1.77 1.77 1.71 1.76 1.76 1.78 1.79 1.77 1.71 1.71 1.69 1.69 1.82 1.91 1.87 1.89 1.87 1.90 1.79 1.59 1.13 1.41 1.40 1.67 1.65 1.56 1.41 1.38
1.73 1.72 1.69 1.64 1.57 1.54 1.54 1.53 1.53 1.52 1.54 1.57 1.68 1.73 1.78 1.82 1.73 1.76 1.77 1.81 1.78 1.77 1.76 1.75 1.80 1.82 1.86 1.88 1.93 1.82 1.76 1.77 1.76 1.72 1.80 1.28 1.35 1.50 1.65 1.58 1.44 1.32 1.33
1.68 1.61 1.60 1.56 1.54 1.51 1.49 1.53 1.56 1.56 1.56 1.58 1.68 1.72 1.75 1.78 1.75 1.73 1.67 1.69 1.65 1.68 1.72 1.72 1.77 1.77 1.74 1.72 1.71 1.58 1.58 1.58 1.73 1.84 1.83 1.74 1.45 1.48 1.51 1.45 1.40 1.44 1.33
1.61 1.58 1.55 1.53 1.54 1.51 1.52 1.54 1.55 1.57 1.53 1.55 1.58 1.62 1.65 1.76 1.77 1.73 1.67 1.61 1.58 1.53 1.58 1.62 1.63 1.59 1.61 1.61 1.57 1.65 1.43 1.35 1.48 1.81 1.83 1.91 1.61 1.46 1.48 1.48 1.42 1.43 1.38
1.56 1.53 1.56 1.53 1.55 1.55 1.56 1.57 1.57 1.55 1.50 1.49 1.54 1.66 1.82 1.85 1.83 1.85 1.73 1.61 1.55 1.56 1.53 1.62 1.62 1.55 1.51 1.50 1.47 1.48 1.49 1.42 1.29 1.50 1.71 1.81 1.93 1.54 1.45 1.57 1.46 1.41 1.42
1.42 1.51 1.57 1.56 1.54 1.53 1.57 1.57 1.53 1.53 1.48 1.49 1.54 1.72 1.83 1.86 1.86 1.85 1.84 1.74 1.58 1.53 1.53 1.55 1.56 1.51 1.47 1.41 1.42 1.45 1.52 1.43 1.36 1.26 1.46 1.67 1.88 1.89 1.58 1.52 1.51 1.50 1.53
1.43 1.48 1.51 1.54 1.57 1.49 1.49 1.50 1.47 1.44 1.41 1.45 1.50 1.68 1.79 1.89 1.94 1.96 1.86 1.80 1.63 1.41 1.46 1.58 1.53 1.42 1.44 1.31 1.21 1.20 1.27 1.31 1.30 1.22 1.24 1.49 1.72 2.05 1.83 1.61 1.54 1.55 1.59
1.39 1.40 1.49 1.51 1.48 1.45 1.44 1.39 1.36 1.34 1.33 1.33 1.46 1.59 1.69 1.75 1.74 1.78 1.76 1.65 1.62 1.58 1.52 1.47 1.45 1.51 1.41 1.25 1.25 1.10 1.14 1.18 1.19 1.24 1.25 1.39 1.61 1.86 2.06 1.77 1.65 1.54 1.60
1.32 1.33 1.41 1.47 1.39 1.38 1.28 1.30 1.29 1.30 1.32 1.33 1.50 1.63 1.72 1.61 1.60 1.67 1.64 1.64 1.60 1.61 1.58 1.58 1.63 1.56 1.47 1.37 1.34 1.19 1.11 1.24 1.30 1.26 1.26 1.34 1.46 1.60 1.86 2.03 1.87 1.62 1.61
1.33 1.35 1.40 1.39 1.37 1.35 1.24 1.27 1.29 1.35 1.39 1.45 1.60 1.68 1.78 1.71 1.70 1.69 1.66 1.64 1.66 1.70 1.70 1.72 1.67 1.57 1.52 1.39 1.34 1.17 1.17 1.14 1.21 1.25 1.25 1.36 1.40 1.40 1.62 1.81 1.90 2.00 1.74
1.33 1.41 1.31 1.31 1.37 1.32 1.26 1.33 1.30 1.35 1.45 1.55 1.62 1.75 1.75 1.73 1.72 1.72 1.69 1.64 1.66 1.71 1.74 1.58 1.53 1.52 1.42 1.27 1.16 1.12 1.08 1.11 1.22 1.24 1.18 1.27 1.40 1.39 1.40 1.59 1.74 1.81 1.98
1.30 1.32 1.38 1.41 1.37 1.35 1.26 1.37 1.38 1.44 1.50 1.56 1.59 1.66 1.70 1.76 1.74 1.74 1.71 1.64 1.58 1.63 1.64 1.57 1.46 1.35 1.31 1.20 1.08 0.99 1.09 1.20 1.21 1.21 1.29 1.28 1.27 1.32 1.40 1.43 1.48 1.64 1.71
1.30 1.34 1.41 1.44 1.39 1.39 1.35 1.43 1.47 1.50 1.51 1.56 1.61 1.64 1.70 1.77 1.82 1.76 1.65 1.55 1.55 1.51 1.44 1.37 1.29 1.13 1.11 1.04 0.99 0.93 1.08 1.08 1.34 1.13 1.19 1.27 1.31 1.32 1.29 1.39 1.43 1.41 1.49
1.34 1.39 1.43 1.47 1.43 1.43 1.38 1.43 1.46 1.56 1.52 1.51 1.51 1.58 1.67 1.71 1.76 1.76 1.55 1.50 1.49 1.34 1.28 1.23 1.20 1.16 1.04 1.00 0.88 0.98 1.10 1.13 1.25 1.15 1.14 1.21 1.26 1.32 1.31 1.30 1.36 1.39 1.46
1.34 1.37 1.36 1.38 1.44 1.43 1.38 1.38 1.32 1.31 1.48 1.49 1.51 1.54 1.54 1.63 1.68 1.69 1.52 1.53 1.40 1.24 1.21 1.16 1.12 1.10 0.92 0.97 0.91 0.93 1.03 1.10 1.17 1.11 1.25 1.20 1.14 1.18 1.19 1.21 1.26 1.34 1.47
1.15 1.23 1.28 1.33 1.40 1.42 1.43 1.39 1.38 1.40 1.45 1.47 1.53 1.53 1.56 1.64 1.59 1.55 1.48 1.44 1.31 1.24 1.28 1.26 1.24 1.17 1.03 1.25 0.97 0.94 0.81 0.91 1.06 1.06 1.15 1.13 1.11 1.12 1.04 1.00 1.13 1.27 1.31
1.04 1.11 1.15 1.22 1.33 1.39 1.41 1.43 1.42 1.46 1.44 1.37 1.38 1.41 1.47 1.57 1.58 1.51 1.50 1.37 1.30 1.34 1.29 1.39 1.37 1.18 1.05 1.28 1.19 1.02 0.87 0.78 0.88 1.01 1.06 1.10 1.09 1.09 1.08 1.10 1.12 1.12 1.11
0.90 1.07 1.17 1.26 1.29 1.36 1.40 1.35 1.28 1.19 1.12 1.21 1.25 1.40 1.46 1.45 1.50 1.48 1.42 1.43 1.42 1.47 1.44 1.45 1.43 1.15 1.15 1.08 1.15 1.18 1.16 1.09 0.87 0.80 0.95 1.01 1.05 1.00 1.02 1.04 1.12 1.19 1.18
0.83 0.93 1.07 1.16 1.20 1.31 1.33 1.31 1.27 1.22 1.21 1.31 1.28 1.34 1.41 1.40 1.44 1.44 1.48 1.54 1.51 1.49 1.50 1.45 1.34 1.17 1.17 1.19 1.20 1.11 1.11 1.19 1.16 0.99 0.83 0.89 1.03 1.06 1.07 1.10 1.13 1.16 1.26
1.14 1.06 1.04 1.09 1.13 1.22 1.23 1.24 1.21 1.18 1.21 1.20 1.24 1.27 1.33 1.37 1.36 1.40 1.55 1.60 1.58 1.45 1.42 1.33 1.28 1.21 1.13 1.16 1.22 1.20 1.12 1.02 1.08 1.11 1.07 1.07 1.06 1.11 1.16 1.16 1.16 1.20 1.25

GFSSE_prec_pwat_024.txt.gz
Precipitable_Water
2.20 2.31 2.39 2.31 2.30 2.27 2.10 1.89 1.77 1.70 1.62 1.47 1.41 1.42 1.41 1.46 1.53 1.58 1.56 1.57 1.63 1.72 1.84 1.90 1.94 1.93 1.81 1.72 1.71 1.55 1.59 1.52 1.40 1.39 1.38 1.45 1.46 1.39 1.41 1.40 1.54 1.57 1.58
2.22 2.31 2.31 2.27 2.27 2.04 1.82 1.70 1.64 1.58 1.47 1.42 1.43 1.39 1.44 1.51 1.56 1.57 1.57 1.60 1.67 1.69 1.73 1.82 1.89 1.92 1.87 1.85 1.74 1.75 1.68 1.65 1.40 1.62 1.79 1.72 1.69 1.52 1.44 1.42 1.35 1.51 1.63
2.17 2.25 2.26 2.26 2.09 1.78 1.61 1.51 1.52 1.48 1.44 1.44 1.38 1.38 1.44 1.48 1.54 1.61 1.59 1.56 1.57 1.68 1.80 1.76 1.83 1.86 1.88 1.84 1.85 1.87 1.87 1.68 1.28 1.59 1.75 1.48 1.54 1.54 1.39 1.32 1.34 1.35 1.45
2.12 2.17 2.16 2.15 1.83 1.58 1.51 1.50 1.50 1.47 1.45 1.40 1.43 1.49 1.50 1.51 1.53 1.56 1.59 1.58 1.60 1.65 1.72 1.78 1.86 1.88 1.90 1.91 1.98 2.01 1.88 1.76 1.38 1.39 1.61 1.75 1.65 1.64 1.37 1.52 1.51 1.67 1.69
2.03 2.08 2.08 1.91 1.65 1.55 1.51 1.55 1.54 1.48 1.43 1.44 1.56 1.60 1.55 1.59 1.57 1.57 1.63 1.61 1.59 1.66 1.71 1.74 1.77 1.78 1.85 1.87 1.97 2.07 1.99 1.86 1.63 1.29 1.36 1.69 1.63 1.58 1.45 1.38 1.59 1.67 1.65
1.95 1.99 1.99 1.71 1.62 1.57 1.54 1.57 1.55 1.49 1.46 1.55 1.61 1.60 1.69 1.68 1.62 1.65 1.69 1.67 1.66 1.71 1.68 1.68 1.70 1.73 1.79 1.90 1.98 2.03 1.98 1.94 1.99 1.63 1.23 1.49 1.57 1.69 1.51 1.61 1.71 1.61 1.62
1.87 1.95 1.79 1.59 1.57 1.56 1.53 1.55 1.55 1.54 1.55 1.60 1.65 1.71 1.76 1.73 1.71 1.75 1.77 1.83 1.83 1.84 1.79 1.77 1.74 1.77 1.80 1.86 1.83 1.88 1.88 1.85 1.90 1.81 1.31 1.40 1.44 1.61 1.57 1.57 1.51 1.44 1.45
1.79 1.79 1.66 1.56 1.53 1.52 1.51 1.53 1.55 1.56 1.60 1.66 1.69 1.77 1.76 1.72 1.72 1.74 1.77 1.80 1.82 1.82 1.79 1.79 1.85 1.87 1.82 1.79 1.72 1.70 1.70 1.75 1.77 1.86 1.51 1.34 1.40 1.56 1.73 1.49 1.34 1.36 1.50
1.77 1.67 1.59 1.52 1.54 1.53 1.52 1.55 1.54 1.55 1.58 1.68 1.69 1.72 1.76 1.75 1.72 1.67 1.65 1.65 1.67 1.70 1.69 1.67 1.65 1.63 1.60 1.58 1.57 1.59 1.49 1.60 1.82 1.85 1.79 1.41 1.46 1.55 1.61 1.39 1.34 1.30 1.40
1.63 1.60 1.54 1.49 1.49 1.51 1.54 1.55 1.54 1.54 1.56 1.60 1.62 1.68 1.80 1.77 1.73 1.69 1.58 1.55 1.57 1.62 1.58 1.60 1.67 1.62 1.55 1.49 1.52 1.51 1.48 1.49 1.72 1.77 1.85 1.64 1.52 1.61 1.58 1.46 1.48 1.34 1.49
1.50 1.49 1.48 1.43 1.45 1.46 1.48 1.53 1.54 1.55 1.52 1.54 1.64 1.76 1.81 1.81 1.83 1.75 1.63 1.52 1.55 1.60 1.57 1.54 1.53 1.53 1.46 1.39 1.44 1.51 1.47 1.39 1.39 1.63 1.68 1.82 1.66 1.49 1.48 1.51 1.51 1.42 1.47
1.31 1.40 1.43 1.42 1.41 1.45 1.47 1.50 1.53 1.55 1.54 1.57 1.65 1.78 1.92 1.88 1.82 1.89 1.79 1.59 1.52 1.56 1.54 1.62 1.50 1.47 1.43 1.33 1.28 1.34 1.46 1.39 1.32 1.33 1.51 1.67 1.94 1.68 1.49 1.58 1.50 1.52 1.51
1.32 1.39 1.42 1.45 1.48 1.48 1.46 1.47 1.51 1.52 1.55 1.54 1.58 1.75 1.80 1.89 1.82 1.86 1.79 1.69 1.52 1.45 1.46 1.56 1.52 1.51 1.46 1.23 1.10 1.09 1.22 1.33 1.26 1.20 1.32 1.54 1.83 2.02 1.65 1.56 1.52 1.54 1.61
1.32 1.35 1.40 1.46 1.46 1.46 1.45 1.43 1.45 1.45 1.49 1.46 1.50 1.65 1.72 1.71 1.73 1.72 1.71 1.57 1.55 1.57 1.57 1.56 1.54 1.57 1.46 1.28 1.18 1.04 1.13 1.14 1.23 1.24 1.26 1.49 1.66 1.98 2.05 1.67 1.55 1.55 1.62
1.30 1.34 1.38 1.46 1.44 1.42 1.38 1.42 1.40 1.38 1.37 1.39 1.45 1.57 1.63 1.58 1.58 1.67 1.67 1.61 1.64 1.67 1.63 1.62 1.67 1.56 1.53 1.44 1.33 1.16 1.07 1.17 1.22 1.26 1.29 1.42 1.56 1.72 1.95 2.00 1.78 1.61 1.60
1.31 1.30 1.40 1.38 1.42 1.43 1.37 1.35 1.31 1.34 1.36 1.38 1.49 1.57 1.67 1.72 1.67 1.70 1.63 1.60 1.71 1.73 1.75 1.63 1.55 1.47 1.52 1.41 1.35 1.29 1.12 1.14 1.21 1.21 1.28 1.35 1.45 1.53 1.75 1.89 1.97 1.86 1.71
1.28 1.31 1.31 1.34 1.38 1.35 1.33 1.29 1.26 1.29 1.36 1.39 1.51 1.59 1.71 1.75 1.70 1.70 1.68 1.63 1.61 1.65 1.64 1.60 1.57 1.44 1.30 1.22 1.25 1.14 1.07 1.19 1.16 1.16 1.18 1.37 1.44 1.45 1.48 1.70 1.77 1.85 1.93
1.32 1.29 1.31 1.34 1.36 1.34 1.29 1.26 1.26 1.31 1.32 1.45 1.57 1.58 1.73 1.74 1.74 1.71 1.70 1.59 1.60 1.55 1.53 1.41 1.40 1.32 1.29 1.19 1.09 1.05 1.07 1.14 1.20 1.20 1.26 1.24 1.32 1.40 1.44 1.45 1.57 1.66 1.72
1.32 1.31 1.28 1.28 1.26 1.25 1.24 1.24 1.28 1.27 1.33 1.45 1.60 1.61 1.68 1.75 1.76 1.81 1.67 1.59 1.57 1.46 1.39 1.39 1.33 1.27 1.14 1.11 1.08 1.00 1.08 1.07 1.26 1.15 1.16 1.24 1.29 1.30 1.33 1.42 1.48 1.46 1.58
1.28 1.30 1.26 1.29 1.31 1.33 1.33 1.25 1.29 1.34 1.47 1.52 1.53 1.63 1.68 1.71 1.78 1.78 1.66 1.55 1.52 1.39 1.32 1.29 1.22 1.27 1.11 1.10 1.00 0.93 1.06 1.14 1.17 1.16 1.15 1.15 1.26 1.31 1.31 1.32 1.43 1.44 1.49
1.25 1.30 1.33 1.34 1.35 1.38 1.30 1.18 1.23 1.27 1.43 1.52 1.52 1.56 1.60 1.63 1.65 1.67 1.62 1.56 1.45 1.33 1.27 1.32 1.28 1.27 1.26 1.06 0.96 0.99 1.08 1.13 1.15 1.14 1.19 1.17 1.14 1.14 1.15 1.17 1.25 1.31 1.44
1.15 1.22 1.29 1.29 1.36 1.38 1.40 1.32 1.29 1.32 1.41 1.49 1.52 1.52 1.54 1.53 1.57 1.59 1.56 1.49 1.39 1.37 1.34 1.44 1.39 1.27 1.14 1.18 0.98 0.94 0.83 0.94 1.05 1.08 1.19 1.14 1.12 1.12 1.05 1.00 1.12 1.29 1.32
1.07 1.14 1.20 1.23 1.25 1.33 1.43 1.43 1.38 1.45 1.43 1.37 1.43 1.46 1.48 1.51 1.58 1.52 1.46 1.42 1.38 1.44 1.44 1.42 1.41 1.27 0.93 1.16 1.17 1.00 0.85 0.78 0.95 1.07 1.08 1.12 1.12 1.09 1.07 1.10 1.13 1.14 1.16
0.96 1.09 1.14 1.20 1.23 1.28 1.42 1.36 1.28 1.21 1.16 1.24 1.27 1.37 1.44 1.47 1.48 1.51 1.43 1.43 1.45 1.58 1.53 1.43 1.43 1.34 1.04 1.05 1.17 1.20 1.21 1.18 0.90 0.83 1.04 1.13 1.15 1.09 1.06 1.06 1.15 1.18 1.20
0.95 1.00 1.06 1.09 1.16 1.26 1.31 1.30 1.25 1.25 1.29 1.30 1.31 1.32 1.39 1.41 1.40 1.41 1.38 1.44 1.54 1.64 1.56 1.43 1.37 1.32 1.12 1.13 1.14 1.10 1.14 1.20 1.24 1.11 0.98 1.02 1.12 1.17 1.15 1.18 1.18 1.23 1.28
1.02 0.97 1.02 1.06 1.07 1.17 1.23 1.27 1.22 1.17 1.21 1.24 1.30 1.29 1.26 1.31 1.34 1.34 1.40 1.49 1.62 1.65 1.52 1.42 1.41 1.32 1.16 1.14 1.22 1.21 1.11 1.05 1.05 1.07 1.04 1.03 1.02 1.11 1.19 1.20 1.18 1.22 1.26

GFSSE_prec_pwat_027.txt.gz
Precipitable_Water
2.27 2.39 2.39 2.37 2.34 2.16 2.01 1.90 1.78 1.68 1.58 1.44 1.39 1.46 1.51 1.53 1.58 1.57 1.60 1.69 1.78 1.87 1.94 1.94 1.97 1.91 1.76 1.77 1.55 1.58 1.51 1.41 1.48 1.47 1.47 1.53 1.43 1.38 1.46 1.59 1.63 1.65 1.66
2.32 2.40 2.37 2.35 2.23 2.01 1.86 1.79 1.70 1.60 1.50 1.43 1.39 1.45 1.52 1.57 1.59 1.58 1.60 1.73 1.77 1.80 1.89 1.95 1.93 1.87 1.86 1.84 1.79 1.77 1.65 1.38 1.64 1.79 1.75 1.68 1.53 1.47 1.39 1.44 1.64 1.70 1.67
2.24 2.31 2.32 2.30 2.05 1.82 1.75 1.68 1.59 1.50 1.46 1.37 1.38 1.45 1.51 1.56 1.59 1.61 1.60 1.61 1.74 1.79 1.82 1.85 1.88 1.92 1.92 1.96 1.93 1.84 1.67 1.29 1.63 1.80 1.56 1.62 1.63 1.44 1.27 1.29 1.49 1.63 1.70
2.22 2.25 2.23 2.11 1.78 1.71 1.67 1.59 1.50 1.47 1.40 1.40 1.46 1.49 1.49 1.54 1.60 1.63 1.60 1.65 1.69 1.78 1.82 1.87 1.89 1.91 1.91 1.98 2.05 1.93 1.77 1.52 1.35 1.70 1.78 1.77 1.68 1.40 1.55 1.44 1.58 1.48 1.44
2.11 2.15 2.10 1.86 1.59 1.56 1.56 1.51 1.48 1.44 1.45 1.54 1.59 1.57 1.56 1.56 1.59 1.62 1.59 1.62 1.69 1.73 1.74 1.78 1.80 1.87 1.92 1.98 2.06 2.12 2.02 1.91 1.48 1.36 1.73 1.71 1.66 1.44 1.54 1.66 1.64 1.67 1.54
2.01 2.04 1.92 1.66 1.51 1.53 1.54 1.51 1.49 1.47 1.53 1.62 1.63 1.69 1.65 1.66 1.70 1.71 1.65 1.69 1.77 1.71 1.67 1.70 1.76 1.82 1.91 1.97 2.04 2.03 1.94 1.97 1.87 1.42 1.47 1.65 1.73 1.54 1.49 1.57 1.57 1.56 1.65
1.89 1.92 1.72 1.60 1.53 1.57 1.59 1.55 1.53 1.50 1.58 1.67 1.72 1.77 1.74 1.74 1.77 1.80 1.83 1.83 1.86 1.78 1.78 1.81 1.87 1.87 1.88 1.88 1.84 1.82 1.82 1.91 1.89 1.56 1.41 1.60 1.72 1.52 1.69 1.66 1.54 1.54 1.54
1.83 1.76 1.64 1.61 1.56 1.59 1.61 1.60 1.53 1.54 1.66 1.72 1.79 1.78 1.75 1.76 1.77 1.80 1.83 1.83 1.83 1.81 1.81 1.84 1.81 1.74 1.64 1.61 1.60 1.59 1.61 1.64 1.83 1.76 1.36 1.49 1.63 1.77 1.60 1.52 1.45 1.45 1.48
1.78 1.65 1.55 1.57 1.57 1.57 1.60 1.58 1.55 1.58 1.68 1.73 1.77 1.77 1.76 1.74 1.70 1.67 1.66 1.69 1.68 1.64 1.67 1.62 1.59 1.56 1.54 1.50 1.51 1.52 1.57 1.80 1.80 1.83 1.39 1.45 1.52 1.75 1.62 1.38 1.37 1.47 1.40
1.70 1.59 1.50 1.50 1.52 1.54 1.57 1.55 1.54 1.57 1.64 1.68 1.69 1.76 1.77 1.73 1.73 1.64 1.57 1.58 1.62 1.60 1.61 1.65 1.54 1.49 1.49 1.49 1.50 1.53 1.52 1.76 1.77 1.83 1.72 1.44 1.55 1.58 1.52 1.45 1.34 1.37 1.36
1.61 1.53 1.46 1.44 1.50 1.55 1.55 1.56 1.56 1.54 1.57 1.65 1.66 1.78 1.80 1.80 1.78 1.70 1.58 1.54 1.60 1.60 1.62 1.58 1.49 1.47 1.40 1.39 1.46 1.52 1.48 1.47 1.65 1.72 1.79 1.71 1.66 1.60 1.55 1.51 1.48 1.44 1.37
1.42 1.44 1.41 1.40 1.43 1.48 1.49 1.54 1.59 1.59 1.58 1.63 1.76 1.87 1.90 1.85 1.84 1.78 1.64 1.56 1.58 1.53 1.50 1.57 1.53 1.53 1.43 1.29 1.18 1.35 1.45 1.41 1.34 1.49 1.65 1.81 1.80 1.62 1.52 1.58 1.59 1.43 1.43
1.36 1.38 1.40 1.42 1.45 1.43 1.42 1.49 1.55 1.60 1.61 1.60 1.66 1.79 1.84 1.85 1.85 1.82 1.72 1.61 1.56 1.50 1.53 1.60 1.58 1.59 1.41 1.26 1.14 1.05 1.28 1.33 1.27 1.21 1.49 1.67 1.93 1.84 1.58 1.63 1.54 1.66 1.59
1.28 1.30 1.34 1.39 1.41 1.43 1.44 1.43 1.51 1.52 1.53 1.50 1.54 1.70 1.74 1.72 1.70 1.69 1.69 1.56 1.59 1.63 1.63 1.62 1.67 1.60 1.53 1.37 1.22 1.10 1.16 1.22 1.26 1.24 1.29 1.54 1.80 2.01 1.90 1.62 1.51 1.48 1.69
1.22 1.28 1.33 1.40 1.42 1.46 1.45 1.44 1.47 1.49 1.46 1.47 1.48 1.58 1.65 1.62 1.62 1.66 1.70 1.66 1.67 1.74 1.72 1.65 1.70 1.59 1.55 1.46 1.45 1.20 1.16 1.22 1.26 1.31 1.31 1.51 1.63 1.89 2.01 1.88 1.69 1.57 1.48
1.25 1.25 1.33 1.38 1.44 1.46 1.43 1.42 1.43 1.47 1.45 1.44 1.43 1.52 1.62 1.62 1.68 1.68 1.64 1.65 1.69 1.72 1.70 1.66 1.59 1.53 1.42 1.39 1.36 1.29 1.14 1.18 1.21 1.22 1.32 1.45 1.51 1.60 1.84 1.98 1.95 1.79 1.63
1.27 1.32 1.32 1.37 1.45 1.44 1.41 1.41 1.43 1.44 1.41 1.37 1.43 1.55 1.60 1.69 1.71 1.71 1.71 1.64 1.62 1.68 1.66 1.59 1.56 1.55 1.33 1.21 1.22 1.19 1.12 1.19 1.14 1.17 1.29 1.42 1.50 1.48 1.54 1.74 1.83 1.90 1.84
1.31 1.26 1.35 1.39 1.38 1.40 1.41 1.39 1.37 1.36 1.36 1.37 1.46 1.53 1.59 1.69 1.75 1.70 1.70 1.61 1.63 1.61 1.57 1.49 1.45 1.36 1.28 1.20 1.12 1.13 1.09 1.17 1.25 1.24 1.25 1.33 1.41 1.46 1.44 1.46 1.60 1.68 1.77
1.31 1.28 1.26 1.35 1.34 1.36 1.38 1.36 1.32 1.29 1.30 1.39 1.44 1.50 1.57 1.65 1.74 1.79 1.70 1.62 1.64 1.51 1.45 1.45 1.40 1.34 1.14 1.15 1.18 1.13 1.08 1.13 1.25 1.17 1.18 1.24 1.31 1.33 1.40 1.42 1.46 1.49 1.60
1.31 1.32 1.28 1.31 1.34 1.36 1.36 1.33 1.28 1.27 1.26 1.35 1.46 1.56 1.61 1.67 1.75 1.79 1.71 1.59 1.59 1.44 1.39 1.40 1.37 1.46 1.32 1.18 1.08 0.95 1.09 1.23 1.24 1.20 1.19 1.20 1.35 1.35 1.34 1.36 1.49 1.49 1.48
1.29 1.30 1.25 1.25 1.24 1.25 1.21 1.14 1.11 1.09 1.18 1.30 1.47 1.57 1.64 1.67 1.70 1.71 1.72 1.61 1.53 1.38 1.43 1.53 1.51 1.37 1.26 1.18 0.98 1.05 1.08 1.17 1.17 1.19 1.24 1.20 1.18 1.22 1.20 1.21 1.27 1.34 1.37
1.17 1.20 1.21 1.18 1.19 1.22 1.27 1.24 1.19 1.17 1.24 1.39 1.52 1.59 1.58 1.58 1.61 1.60 1.60 1.59 1.49 1.41 1.54 1.56 1.51 1.32 1.27 1.09 0.99 1.00 0.87 0.96 1.06 1.11 1.21 1.13 1.12 1.13 1.07 1.03 1.18 1.30 1.39
1.09 1.13 1.14 1.18 1.22 1.27 1.35 1.36 1.28 1.28 1.35 1.36 1.44 1.50 1.52 1.57 1.59 1.59 1.60 1.50 1.46 1.53 1.55 1.55 1.48 1.36 1.11 1.14 1.18 1.06 0.89 0.82 0.97 1.08 1.12 1.11 1.11 1.09 1.08 1.12 1.16 1.17 1.16
1.00 1.11 1.17 1.25 1.29 1.33 1.38 1.33 1.20 1.10 1.10 1.23 1.31 1.43 1.51 1.54 1.53 1.58 1.59 1.46 1.50 1.64 1.58 1.55 1.50 1.38 1.26 1.06 1.21 1.26 1.27 1.27 1.03 0.96 1.12 1.18 1.17 1.14 1.12 1.11 1.17 1.19 1.20
1.03 1.05 1.12 1.23 1.27 1.31 1.31 1.29 1.27 1.17 1.23 1.34 1.36 1.30 1.36 1.47 1.51 1.53 1.55 1.46 1.54 1.64 1.65 1.57 1.44 1.37 1.34 1.12 1.18 1.15 1.16 1.21 1.25 1.11 0.99 1.06 1.19 1.20 1.21 1.21 1.22 1.26 1.29
1.09 1.08 1.14 1.19 1.19 1.26 1.28 1.27 1.27 1.24 1.26 1.27 1.26 1.21 1.29 1.38 1.40 1.45 1.49 1.49 1.61 1.64 1.64 1.58 1.49 1.39 1.32 1.15 1.17 1.18 1.12 1.06 1.06 1.10 1.06 1.07 1.06 1.15 1.19 1.24 1.27 1.29 1.33

GFSSE_prec_pwat_030.txt.gz
Precipitable_Water
2.03 2.14 2.23 2.21 2.07 1.92 1.87 1.76 1.64 1.45 1.39 1.35 1.43 1.49 1.50 1.58 1.61 1.63 1.71 1.87 2.00 2.02 1.96 2.02 1.94 1.76 1.81 1.59 1.59 1.60 1.44 1.50 1.48 1.47 1.46 1.51 1.55 1.54 1.63 1.69 1.70 1.65 1.64
2.33 2.34 2.23 2.13 1.94 1.83 1.80 1.67 1.55 1.47 1.38 1.43 1.50 1.50 1.55 1.58 1.61 1.66 1.82 1.81 1.87 1.96 1.96 1.94 1.91 1.86 1.89 1.89 1.81 1.66 1.42 1.64 1.74 1.74 1.69 1.50 1.51 1.40 1.49 1.66 1.81 1.72 1.70
2.25 2.37 2.31 2.15 1.97 1.86 1.76 1.60 1.54 1.47 1.40 1.41 1.48 1.53 1.58 1.61 1.62 1.62 1.67 1.80 1.80 1.81 1.87 1.92 1.96 1.96 2.00 2.02 1.80 1.67 1.40 1.62 1.81 1.63 1.71 1.64 1.52 1.36 1.36 1.62 1.80 1.73 1.76
2.24 2.23 2.21 2.04 1.84 1.73 1.64 1.57 1.52 1.44 1.41 1.44 1.49 1.51 1.59 1.65 1.64 1.62 1.71 1.74 1.80 1.85 1.87 1.89 1.91 1.92 2.01 2.07 1.99 1.82 1.62 1.41 1.71 1.72 1.89 1.69 1.44 1.32 1.29 1.43 1.56 1.63 1.65
2.17 2.22 2.09 1.86 1.73 1.66 1.59 1.54 1.45 1.47 1.52 1.55 1.56 1.57 1.60 1.63 1.65 1.63 1.65 1.76 1.73 1.72 1.78 1.80 1.87 1.94 1.95 2.05 2.09 2.03 2.02 1.67 1.43 1.81 1.93 1.76 1.49 1.65 1.64 1.78 1.68 1.55 1.57
2.09 2.12 1.85 1.72 1.67 1.62 1.56 1.49 1.51 1.57 1.60 1.66 1.66 1.65 1.64 1.68 1.71 1.66 1.73 1.84 1.73 1.70 1.73 1.76 1.82 1.88 1.94 1.96 1.93 1.95 1.96 2.01 1.70 1.55 1.77 1.78 1.60 1.48 1.71 1.82 1.70 1.58 1.48
1.98 1.89 1.67 1.60 1.59 1.55 1.51 1.54 1.57 1.60 1.67 1.69 1.76 1.74 1.74 1.79 1.82 1.80 1.85 1.87 1.78 1.80 1.87 1.88 1.89 1.82 1.74 1.72 1.69 1.71 1.80 1.94 1.81 1.52 1.69 1.86 1.57 1.68 1.84 1.64 1.65 1.71 1.73
1.86 1.72 1.56 1.51 1.55 1.57 1.58 1.61 1.57 1.64 1.71 1.77 1.79 1.74 1.76 1.81 1.83 1.84 1.85 1.83 1.81 1.81 1.80 1.72 1.64 1.57 1.53 1.54 1.58 1.52 1.56 1.76 1.85 1.49 1.54 1.75 1.60 1.72 1.67 1.51 1.47 1.51 1.60
1.79 1.58 1.49 1.48 1.58 1.64 1.64 1.63 1.63 1.70 1.73 1.80 1.76 1.73 1.72 1.72 1.72 1.71 1.72 1.69 1.67 1.66 1.65 1.67 1.61 1.57 1.54 1.56 1.53 1.58 1.75 1.73 1.88 1.54 1.47 1.53 1.78 1.85 1.56 1.44 1.55 1.48 1.47
1.64 1.54 1.47 1.52 1.58 1.63 1.63 1.65 1.66 1.68 1.71 1.71 1.75 1.76 1.74 1.73 1.69 1.63 1.59 1.63 1.66 1.63 1.61 1.53 1.50 1.46 1.47 1.51 1.51 1.57 1.64 1.77 1.81 1.72 1.42 1.53 1.70 1.74 1.48 1.40 1.44 1.42 1.27
1.53 1.47 1.48 1.51 1.56 1.62 1.63 1.60 1.57 1.61 1.65 1.64 1.74 1.79 1.79 1.93 1.85 1.78 1.59 1.61 1.63 1.64 1.61 1.54 1.49 1.45 1.42 1.33 1.34 1.48 1.57 1.69 1.79 1.78 1.84 1.45 1.68 1.69 1.52 1.55 1.38 1.49 1.23
1.40 1.39 1.43 1.50 1.52 1.57 1.61 1.58 1.59 1.58 1.59 1.71 1.78 1.83 1.90 1.89 1.85 1.78 1.65 1.61 1.59 1.49 1.53 1.51 1.52 1.50 1.43 1.31 1.28 1.43 1.63 1.40 1.49 1.67 1.78 1.73 1.63 1.70 1.52 1.57 1.49 1.49 1.37
1.43 1.37 1.40 1.48 1.54 1.53 1.55 1.60 1.63 1.62 1.67 1.71 1.80 1.90 1.96 1.89 1.88 1.86 1.75 1.66 1.65 1.51 1.64 1.74 1.81 1.74 1.44 1.34 1.20 1.20 1.36 1.33 1.30 1.37 1.53 1.75 1.79 1.71 1.51 1.65 1.65 1.52 1.49
1.40 1.37 1.40 1.46 1.49 1.52 1.55 1.55 1.63 1.63 1.63 1.60 1.63 1.79 1.79 1.77 1.77 1.81 1.72 1.67 1.63 1.74 1.75 1.73 1.82 1.68 1.56 1.48 1.38 1.19 1.23 1.31 1.34 1.30 1.42 1.61 1.86 1.90 1.74 1.61 1.48 1.55 1.55
1.36 1.36 1.41 1.47 1.47 1.48 1.49 1.52 1.55 1.58 1.56 1.56 1.56 1.65 1.73 1.71 1.70 1.77 1.79 1.75 1.77 1.78 1.77 1.80 1.72 1.71 1.59 1.54 1.42 1.29 1.29 1.26 1.31 1.38 1.40 1.45 1.69 1.94 1.98 1.77 1.59 1.50 1.55
1.36 1.32 1.39 1.44 1.48 1.48 1.45 1.50 1.53 1.57 1.58 1.56 1.52 1.53 1.65 1.67 1.70 1.75 1.71 1.70 1.70 1.72 1.72 1.76 1.71 1.68 1.35 1.37 1.43 1.33 1.21 1.30 1.22 1.28 1.40 1.51 1.54 1.71 1.88 1.90 1.82 1.73 1.60
1.32 1.34 1.35 1.41 1.47 1.45 1.47 1.49 1.51 1.52 1.53 1.48 1.46 1.56 1.62 1.71 1.75 1.77 1.88 1.70 1.65 1.79 1.71 1.63 1.66 1.57 1.50 1.26 1.23 1.17 1.24 1.27 1.29 1.23 1.41 1.53 1.56 1.48 1.61 1.79 1.88 1.89 1.77
1.34 1.31 1.38 1.43 1.44 1.46 1.46 1.49 1.47 1.48 1.49 1.43 1.40 1.54 1.62 1.68 1.76 1.77 1.89 1.67 1.68 1.68 1.61 1.61 1.52 1.44 1.30 1.21 1.20 1.16 1.14 1.30 1.29 1.28 1.36 1.48 1.47 1.58 1.43 1.49 1.63 1.70 1.77
1.38 1.36 1.38 1.42 1.41 1.45 1.48 1.48 1.45 1.44 1.42 1.40 1.37 1.50 1.58 1.63 1.72 1.78 1.80 1.74 1.67 1.51 1.56 1.49 1.45 1.38 1.22 1.21 1.22 1.18 1.13 1.22 1.19 1.22 1.24 1.29 1.37 1.41 1.50 1.37 1.40 1.48 1.58
1.43 1.42 1.44 1.44 1.44 1.46 1.47 1.47 1.42 1.35 1.28 1.34 1.35 1.41 1.53 1.60 1.69 1.81 1.82 1.73 1.59 1.47 1.51 1.63 1.52 1.45 1.38 1.25 1.14 1.01 1.17 1.26 1.26 1.21 1.18 1.25 1.35 1.34 1.38 1.48 1.48 1.53 1.44
1.36 1.39 1.38 1.37 1.40 1.42 1.35 1.27 1.23 1.13 1.16 1.21 1.31 1.43 1.57 1.61 1.73 1.81 1.76 1.77 1.60 1.47 1.69 1.64 1.54 1.43 1.38 1.25 1.05 1.11 1.14 1.18 1.18 1.20 1.23 1.20 1.20 1.28 1.23 1.26 1.32 1.37 1.44
1.24 1.29 1.33 1.32 1.35 1.35 1.35 1.31 1.25 1.18 1.21 1.23 1.30 1.44 1.59 1.62 1.69 1.70 1.71 1.76 1.63 1.50 1.63 1.66 1.52 1.43 1.29 1.09 1.10 1.11 0.97 1.02 1.10 1.18 1.18 1.14 1.12 1.15 1.06 1.08 1.28 1.29 1.32
1.14 1.21 1.25 1.30 1.30 1.34 1.36 1.37 1.31 1.27 1.26 1.23 1.27 1.41 1.53 1.60 1.60 1.61 1.69 1.59 1.59 1.57 1.68 1.62 1.51 1.35 1.21 1.14 1.24 1.24 0.99 0.93 1.02 1.10 1.19 1.18 1.16 1.12 1.10 1.16 1.19 1.22 1.21
1.06 1.22 1.26 1.30 1.33 1.36 1.36 1.27 1.20 1.07 1.05 1.19 1.27 1.41 1.51 1.58 1.57 1.60 1.61 1.56 1.51 1.61 1.66 1.70 1.58 1.46 1.36 1.13 1.18 1.21 1.31 1.33 1.11 1.08 1.19 1.24 1.22 1.19 1.17 1.19 1.22 1.24 1.21
1.10 1.16 1.21 1.26 1.30 1.36 1.34 1.31 1.28 1.18 1.20 1.29 1.35 1.40 1.49 1.56 1.56 1.54 1.58 1.57 1.54 1.63 1.64 1.67 1.56 1.46 1.40 1.19 1.19 1.17 1.18 1.20 1.20 1.11 1.06 1.15 1.27 1.28 1.30 1.28 1.29 1.31 1.32
1.09 1.16 1.19 1.21 1.23 1.35 1.35 1.31 1.27 1.24 1.21 1.21 1.29 1.31 1.34 1.40 1.49 1.49 1.50 1.49 1.57 1.64 1.62 1.65 1.61 1.46 1.36 1.21 1.16 1.19 1.14 1.10 1.12 1.14 1.08 1.11 1.14 1.28 1.30 1.29 1.32 1.36 1.40

GFSSE_prec_pwat_033.txt.gz
Precipitable_Water
1.93 2.14 2.09 2.05 1.94 1.81 1.65 1.57 1.49 1.36 1.37 1.44 1.55 1.56 1.60 1.61 1.62 1.74 1.89 2.02 2.04 1.97 1.96 1.90 1.75 1.80 1.68 1.57 1.61 1.42 1.48 1.51 1.54 1.50 1.45 1.55 1.59 1.56 1.61 1.77 1.86 1.63 1.71
1.99 2.11 2.12 1.99 1.93 1.84 1.69 1.52 1.42 1.36 1.42 1.53 1.54 1.59 1.60 1.61 1.72 1.81 1.85 1.91 1.96 1.96 1.93 1.91 1.84 1.93 1.91 1.79 1.64 1.41 1.68 1.69 1.67 1.67 1.46 1.38 1.44 1.47 1.65 1.80 1.91 1.66 1.73
1.99 2.09 2.02 1.91 1.84 1.72 1.62 1.51 1.43 1.39 1.48 1.54 1.57 1.59 1.62 1.64 1.62 1.70 1.81 1.81 1.82 1.87 1.92 1.95 1.94 2.00 2.03 1.84 1.78 1.52 1.53 1.78 1.56 1.84 1.98 1.70 1.40 1.39 1.62 1.86 1.79 1.78 1.77
2.03 2.01 1.88 1.84 1.76 1.68 1.59 1.52 1.45 1.41 1.46 1.55 1.57 1.61 1.63 1.65 1.64 1.74 1.79 1.82 1.88 1.89 1.89 1.90 1.92 1.99 2.04 2.00 1.91 1.77 1.48 1.63 1.69 2.01 1.87 1.57 1.28 1.25 1.53 1.84 1.75 1.74 1.67
2.05 2.08 1.91 1.81 1.76 1.63 1.58 1.51 1.46 1.43 1.48 1.53 1.55 1.61 1.61 1.63 1.59 1.69 1.76 1.74 1.74 1.81 1.84 1.89 1.94 1.94 2.00 2.06 2.02 2.03 1.81 1.47 1.75 1.96 1.65 1.63 1.66 1.44 1.48 1.53 1.50 1.60 1.83
2.11 1.97 1.85 1.75 1.70 1.58 1.52 1.52 1.51 1.53 1.60 1.61 1.60 1.58 1.63 1.70 1.67 1.73 1.79 1.71 1.71 1.76 1.79 1.81 1.83 1.87 1.88 1.80 1.80 1.89 1.95 1.73 1.66 1.78 1.86 1.62 1.74 1.68 1.82 1.90 1.70 1.53 1.50
1.96 1.83 1.72 1.73 1.66 1.56 1.51 1.54 1.57 1.63 1.68 1.69 1.66 1.65 1.72 1.75 1.75 1.82 1.81 1.79 1.83 1.89 1.90 1.84 1.73 1.60 1.55 1.57 1.57 1.57 1.76 1.86 1.60 1.90 1.80 1.67 1.43 1.65 1.69 1.63 1.65 1.65 1.69
1.82 1.61 1.64 1.67 1.60 1.54 1.53 1.56 1.64 1.69 1.70 1.76 1.72 1.73 1.80 1.81 1.82 1.84 1.82 1.83 1.79 1.76 1.65 1.62 1.56 1.52 1.49 1.48 1.52 1.56 1.59 1.88 1.73 1.63 1.81 1.66 1.68 1.75 1.57 1.55 1.60 1.63 1.63
1.70 1.54 1.54 1.55 1.56 1.54 1.57 1.58 1.67 1.71 1.74 1.75 1.71 1.73 1.72 1.70 1.67 1.69 1.67 1.67 1.64 1.62 1.62 1.55 1.52 1.52 1.49 1.48 1.57 1.63 1.66 1.81 1.73 1.42 1.60 1.74 1.76 1.70 1.48 1.53 1.55 1.55 1.50
1.63 1.48 1.41 1.48 1.55 1.60 1.59 1.61 1.68 1.70 1.72 1.72 1.74 1.75 1.73 1.66 1.58 1.52 1.55 1.60 1.62 1.57 1.53 1.51 1.44 1.33 1.31 1.31 1.44 1.50 1.70 1.82 1.86 1.45 1.59 1.63 1.77 1.71 1.41 1.51 1.47 1.36 1.53
1.55 1.42 1.40 1.47 1.55 1.66 1.64 1.63 1.64 1.65 1.66 1.71 1.72 1.66 1.94 2.00 1.93 1.74 1.61 1.56 1.58 1.56 1.49 1.46 1.37 1.48 1.53 1.39 1.20 1.49 1.76 1.93 1.90 1.92 1.71 1.42 1.62 1.64 1.51 1.41 1.50 1.32 1.37
1.39 1.38 1.43 1.50 1.54 1.62 1.60 1.57 1.59 1.60 1.61 1.76 1.87 1.65 2.26 1.84 1.88 1.83 1.52 1.51 1.50 1.47 1.48 1.49 1.73 1.60 1.69 1.59 1.45 1.63 1.86 1.40 1.63 1.81 1.79 1.62 1.56 1.67 1.54 1.51 1.48 1.41 1.27
1.40 1.40 1.47 1.50 1.54 1.57 1.59 1.51 1.59 1.59 1.69 1.79 1.87 1.99 1.93 1.90 1.81 2.02 1.67 1.61 1.69 1.53 1.80 2.07 1.87 1.57 1.39 1.42 1.27 1.47 1.33 1.46 1.40 1.54 1.65 1.75 1.65 1.60 1.57 1.58 1.52 1.46 1.40
1.41 1.39 1.44 1.52 1.51 1.54 1.64 1.59 1.63 1.67 1.69 1.67 1.74 1.77 1.78 1.94 1.68 2.26 1.75 1.79 1.73 1.81 1.83 1.97 1.78 1.64 1.67 1.51 1.28 1.22 1.26 1.41 1.37 1.49 1.46 1.59 1.84 1.72 1.51 1.59 1.55 1.57 1.49
1.37 1.39 1.42 1.51 1.51 1.56 1.61 1.62 1.69 1.66 1.62 1.63 1.67 1.69 1.80 1.79 1.63 1.80 1.78 1.92 1.83 1.82 1.72 1.73 1.64 1.58 1.42 1.36 1.41 1.48 1.31 1.19 1.27 1.58 1.43 1.40 1.74 1.90 1.81 1.67 1.53 1.49 1.57
1.42 1.39 1.45 1.47 1.52 1.58 1.55 1.64 1.60 1.62 1.65 1.60 1.58 1.61 1.65 1.72 1.64 1.86 1.75 1.79 1.72 1.81 2.04 1.74 1.63 1.64 1.63 1.33 1.24 1.25 1.29 1.32 1.26 1.44 1.51 1.34 1.47 1.72 1.90 1.83 1.68 1.60 1.51
1.42 1.43 1.44 1.46 1.53 1.50 1.53 1.57 1.59 1.61 1.59 1.56 1.56 1.57 1.64 1.65 1.69 1.99 1.86 1.70 1.78 1.84 1.68 1.60 1.76 1.71 1.40 1.43 1.19 1.09 1.29 1.37 1.22 1.43 1.60 1.64 1.55 1.50 1.57 1.80 1.87 1.85 1.70
1.42 1.42 1.43 1.45 1.49 1.49 1.47 1.53 1.56 1.57 1.55 1.55 1.53 1.55 1.61 1.66 1.78 1.89 1.82 1.67 1.94 1.68 1.55 1.71 1.45 1.35 1.46 1.19 1.21 1.24 1.22 1.18 1.26 1.16 1.42 1.51 1.57 1.62 1.50 1.44 1.63 1.72 1.80
1.42 1.41 1.39 1.42 1.42 1.45 1.48 1.52 1.53 1.53 1.54 1.53 1.48 1.50 1.61 1.63 1.71 1.74 1.91 2.05 1.63 1.58 1.60 1.48 1.62 1.51 1.28 1.28 1.33 1.23 1.23 1.15 1.36 1.32 1.27 1.35 1.41 1.63 1.63 1.47 1.36 1.48 1.60
1.42 1.41 1.41 1.42 1.44 1.47 1.50 1.51 1.51 1.48 1.49 1.48 1.41 1.43 1.60 1.61 1.66 1.72 1.84 1.74 1.57 1.64 1.67 1.79 1.54 1.44 1.45 1.26 1.26 1.09 1.27 1.29 1.31 1.29 1.23 1.44 1.34 1.24 1.51 1.46 1.48 1.61 1.55
1.36 1.38 1.37 1.37 1.40 1.46 1.42 1.36 1.33 1.29 1.35 1.33 1.36 1.39 1.49 1.59 1.66 1.75 1.84 1.82 1.57 1.54 1.62 1.60 1.56 1.50 1.51 1.22 1.16 1.13 1.19 1.19 1.22 1.21 1.27 1.34 1.24 1.49 1.46 1.26 1.55 1.54 1.50
1.27 1.36 1.37 1.39 1.42 1.42 1.43 1.41 1.39 1.35 1.31 1.28 1.31 1.38 1.45 1.60 1.64 1.76 1.87 1.81 1.63 1.95 1.65 1.58 1.45 1.60 1.25 1.16 1.26 1.12 1.00 1.05 1.15 1.30 1.19 1.16 1.20 1.18 1.14 1.18 1.27 1.38 1.61
1.22 1.31 1.36 1.37 1.42 1.41 1.45 1.44 1.40 1.35 1.27 1.23 1.25 1.30 1.43 1.60 1.63 1.77 1.81 1.64 1.64 1.56 1.85 1.68 1.44 1.39 1.35 1.11 1.35 1.37 1.09 1.10 1.07 1.15 1.13 1.26 1.12 1.12 1.10 1.17 1.22 1.21 1.37
1.18 1.30 1.39 1.40 1.39 1.41 1.43 1.39 1.28 1.13 1.06 1.14 1.23 1.31 1.46 1.55 1.56 1.65 1.63 1.60 1.58 1.56 1.79 1.71 1.56 1.53 1.30 1.12 1.12 1.32 1.45 1.41 1.21 1.12 1.28 1.28 1.27 1.25 1.23 1.35 1.32 1.30 1.29
1.13 1.21 1.29 1.35 1.34 1.35 1.37 1.36 1.27 1.18 1.15 1.23 1.28 1.29 1.36 1.65 1.58 1.56 1.63 1.59 1.52 1.54 1.65 1.68 1.65 1.41 1.42 1.35 1.24 1.16 1.14 1.14 1.28 1.23 1.12 1.21 1.29 1.32 1.42 1.25 1.41 1.45 1.41
1.09 1.19 1.28 1.34 1.33 1.36 1.37 1.25 1.27 1.15 1.16 1.17 1.22 1.31 1.40 1.44 1.55 1.54 1.57 1.56 1.62 1.56 1.63 1.67 1.68 1.52 1.43 1.31 1.27 1.27 1.22 1.19 1.21 1.17 1.13 1.19 1.21 1.32 1.32 1.36 1.33 1.34 1.42

GFSSE_prec_pwat_036.txt.gz
Precipitable_Water
2.01 2.00 1.92 1.93 1.80 1.61 1.59 1.54 1.44 1.45 1.43 1.52 1.53 1.58 1.58 1.63 1.70 1.85 1.96 1.99 1.94 1.87 1.85 1.78 1.79 1.77 1.60 1.62 1.37 1.44 1.52 1.45 1.42 1.37 1.37 1.49 1.53 1.63 1.72 1.82 1.93 1.63 1.71
1.97 1.90 1.89 1.88 1.68 1.57 1.59 1.46 1.41 1.41 1.51 1.49 1.57 1.58 1.62 1.70 1.76 1.80 1.85 1.91 1.93 1.90 1.85 1.80 1.88 1.90 1.78 1.59 1.35 1.70 1.65 1.65 1.64 1.51 1.38 1.42 1.55 1.59 1.77 1.90 1.97 1.66 1.85
1.83 1.88 1.86 1.86 1.74 1.64 1.52 1.43 1.42 1.47 1.46 1.52 1.54 1.60 1.64 1.57 1.69 1.74 1.77 1.79 1.83 1.88 1.90 1.90 1.97 2.03 1.88 1.73 1.50 1.43 1.68 1.68 1.96 2.04 1.74 1.54 1.36 1.59 1.78 1.95 1.86 1.77 1.80
1.77 1.80 1.80 1.81 1.70 1.57 1.51 1.44 1.44 1.45 1.55 1.49 1.60 1.62 1.59 1.62 1.73 1.76 1.79 1.84 1.83 1.84 1.88 1.90 1.95 2.01 2.04 2.00 1.97 1.52 1.65 1.80 1.97 1.79 1.61 1.50 1.27 1.51 1.81 1.79 1.87 1.75 1.72
1.79 1.78 1.75 1.68 1.63 1.61 1.50 1.47 1.41 1.49 1.50 1.52 1.58 1.56 1.58 1.58 1.72 1.69 1.71 1.74 1.78 1.80 1.85 1.89 1.88 1.92 1.98 1.89 1.94 1.86 1.72 1.74 1.90 1.73 1.61 1.65 1.37 1.31 1.66 1.61 1.64 1.72 1.79
1.80 1.82 1.66 1.60 1.60 1.56 1.52 1.44 1.42 1.49 1.52 1.55 1.53 1.58 1.66 1.63 1.73 1.69 1.70 1.69 1.72 1.73 1.75 1.77 1.77 1.69 1.62 1.63 1.67 1.80 1.80 1.71 1.79 1.97 1.65 1.62 1.53 1.67 1.72 1.71 1.60 1.60 1.47
1.78 1.87 1.61 1.66 1.57 1.51 1.55 1.51 1.53 1.58 1.60 1.58 1.57 1.66 1.67 1.65 1.76 1.74 1.74 1.78 1.81 1.78 1.66 1.56 1.50 1.46 1.46 1.51 1.49 1.52 1.76 1.72 1.85 1.81 1.62 1.56 1.59 1.75 1.73 1.71 1.54 1.52 1.59
1.77 1.71 1.65 1.62 1.55 1.53 1.55 1.55 1.61 1.65 1.67 1.66 1.68 1.74 1.76 1.78 1.78 1.75 1.76 1.70 1.63 1.56 1.52 1.49 1.49 1.43 1.43 1.45 1.53 1.66 1.70 1.74 1.80 1.84 1.70 1.59 1.65 1.54 1.60 1.64 1.68 1.68 1.55
1.68 1.61 1.57 1.58 1.57 1.54 1.52 1.61 1.65 1.68 1.73 1.73 1.72 1.72 1.70 1.70 1.66 1.60 1.59 1.56 1.54 1.52 1.49 1.47 1.36 1.36 1.29 1.41 1.53 1.69 1.81 1.68 1.51 1.69 1.70 1.65 1.67 1.53 1.49 1.54 1.52 1.52 1.53
1.52 1.49 1.48 1.53 1.52 1.50 1.54 1.61 1.66 1.69 1.71 1.68 1.72 1.73 1.71 1.60 1.58 1.51 1.51 1.55 1.52 1.48 1.44 1.39 1.45 1.46 1.41 1.41 1.52 1.70 1.80 1.80 1.56 1.72 1.64 1.66 1.75 1.45 1.51 1.52 1.41 1.50 1.47
1.49 1.42 1.45 1.43 1.47 1.57 1.59 1.59 1.64 1.65 1.65 1.71 1.75 1.77 1.90 1.85 1.75 1.68 1.60 1.46 1.48 1.46 1.45 1.56 1.58 1.56 1.53 1.53 1.69 1.79 1.82 1.90 1.80 1.80 1.59 1.44 1.55 1.39 1.42 1.46 1.35 1.43 1.48
1.37 1.30 1.40 1.44 1.51 1.59 1.54 1.55 1.57 1.56 1.57 1.78 1.96 1.53 1.82 1.82 1.84 1.74 1.48 1.45 1.47 1.49 1.59 1.71 1.56 1.86 1.60 1.72 1.64 1.60 1.57 1.66 1.79 1.73 1.69 1.55 1.53 1.55 1.45 1.41 1.44 1.26 1.40
1.37 1.28 1.38 1.46 1.55 1.52 1.56 1.43 1.52 1.57 1.64 1.86 2.03 1.73 2.05 2.09 2.05 1.77 1.60 1.67 1.66 1.80 1.87 1.54 1.65 1.59 1.62 1.62 1.58 1.45 1.46 1.66 1.64 1.62 1.70 1.66 1.52 1.51 1.55 1.50 1.45 1.39 1.32
1.29 1.32 1.38 1.46 1.49 1.55 1.61 1.42 1.54 1.57 1.71 1.74 1.77 1.94 2.14 1.99 1.97 1.62 1.71 1.80 2.03 1.97 1.93 1.76 1.65 1.61 1.48 1.41 1.35 1.56 1.44 1.50 1.54 1.56 1.61 1.55 1.75 1.58 1.56 1.50 1.50 1.47 1.45
1.34 1.39 1.44 1.49 1.40 1.55 1.71 1.47 1.62 1.66 1.59 1.69 1.69 1.54 2.16 1.69 1.83 1.98 1.91 1.87 1.74 1.93 2.12 1.78 1.65 1.70 1.36 1.33 1.40 1.35 1.27 1.37 1.49 1.52 1.51 1.39 1.73 1.83 1.65 1.67 1.49 1.50 1.59
1.41 1.35 1.47 1.49 1.42 1.55 1.58 1.61 1.75 1.60 1.62 1.72 1.67 1.57 1.65 1.93 1.97 1.80 1.80 1.71 1.71 1.87 1.78 1.73 1.64 1.66 1.50 1.29 1.22 1.24 1.41 1.30 1.32 1.56 1.43 1.49 1.49 1.78 1.95 1.84 1.66 1.61 1.57
1.37 1.36 1.40 1.46 1.47 1.46 1.50 1.58 1.64 1.61 1.64 1.50 1.68 1.68 1.59 1.73 1.72 1.97 1.82 1.69 1.87 1.62 1.62 1.55 1.64 1.71 1.51 1.29 1.19 1.28 1.21 1.26 1.32 1.51 1.61 1.63 1.62 1.60 1.62 1.77 1.81 1.78 1.70
1.39 1.36 1.38 1.42 1.42 1.41 1.44 1.52 1.53 1.57 1.55 1.59 1.55 1.56 1.56 1.59 1.76 1.79 1.87 1.85 1.65 1.70 1.52 1.64 1.47 1.60 1.40 1.37 1.16 1.34 1.30 1.20 1.17 1.42 1.59 1.53 1.57 1.60 1.54 1.53 1.61 1.69 1.73
1.43 1.37 1.34 1.37 1.40 1.39 1.43 1.49 1.47 1.51 1.55 1.53 1.55 1.53 1.55 1.55 1.63 1.73 1.98 1.92 1.79 1.58 1.57 1.57 1.55 1.63 1.42 1.34 1.39 1.30 1.21 1.22 1.39 1.29 1.32 1.46 1.46 1.49 1.53 1.49 1.44 1.44 1.55
1.44 1.41 1.37 1.36 1.47 1.45 1.42 1.45 1.50 1.47 1.47 1.52 1.47 1.44 1.53 1.54 1.53 1.65 1.80 1.75 1.69 1.51 1.56 1.54 1.52 1.39 1.48 1.35 1.31 1.31 1.27 1.28 1.40 1.30 1.34 1.44 1.50 1.43 1.51 1.44 1.39 1.46 1.51
1.37 1.38 1.33 1.32 1.38 1.43 1.36 1.31 1.36 1.29 1.40 1.41 1.44 1.42 1.48 1.49 1.53 1.59 1.89 1.99 1.66 1.54 1.62 1.49 1.46 1.54 1.45 1.17 1.09 1.11 1.15 1.15 1.14 1.31 1.40 1.37 1.38 1.40 1.50 1.43 1.41 1.48 1.42
1.28 1.31 1.32 1.31 1.37 1.42 1.38 1.38 1.35 1.39 1.37 1.40 1.34 1.40 1.42 1.44 1.58 1.66 1.76 1.77 1.77 1.68 1.65 1.48 1.46 1.50 1.28 1.23 1.23 1.18 1.06 1.11 1.22 1.27 1.20 1.19 1.26 1.22 1.16 1.35 1.38 1.40 1.43
1.24 1.24 1.28 1.30 1.37 1.40 1.39 1.44 1.42 1.43 1.36 1.32 1.25 1.24 1.32 1.41 1.52 1.71 1.79 1.77 1.78 1.69 1.83 1.58 1.23 1.45 1.26 1.21 1.44 1.40 1.20 1.06 1.16 1.30 1.21 1.21 1.18 1.19 1.14 1.33 1.41 1.35 1.37
1.17 1.26 1.27 1.32 1.34 1.41 1.40 1.36 1.31 1.18 1.08 1.16 1.17 1.23 1.31 1.36 1.45 1.61 1.59 1.61 1.60 1.57 1.62 1.62 1.41 1.50 1.36 0.98 1.21 1.41 1.42 1.34 1.03 1.03 1.29 1.33 1.34 1.29 1.28 1.37 1.37 1.36 1.40
1.16 1.24 1.28 1.31 1.34 1.41 1.34 1.41 1.29 1.21 1.16 1.16 1.23 1.22 1.29 1.38 1.49 1.49 1.54 1.49 1.51 1.47 1.78 1.66 1.55 1.34 1.34 1.33 1.11 1.13 1.23 1.28 1.32 1.20 1.08 1.18 1.31 1.34 1.37 1.31 1.40 1.40 1.44
1.23 1.29 1.35 1.33 1.30 1.38 1.38 1.31 1.36 1.20 1.16 1.11 1.11 1.20 1.26 1.45 1.54 1.59 1.55 1.51 1.54 1.51 1.62 1.65 1.58 1.44 1.40 1.38 1.34 1.25 1.16 1.12 1.21 1.19 1.23 1.25 1.18 1.25 1.35 1.34 1.32 1.33 1.41

GFSSE_prec_pwat_042.txt.gz
Precipitable_Water
1.89 1.94 1.78 1.74 1.65 1.54 1.42 1.51 1.42 1.45 1.46 1.51 1.56 1.66 1.75 1.79 1.85 1.90 1.83 1.80 1.78 1.75 1.79 1.74 1.60 1.39 1.37 1.49 1.56 1.50 1.51 1.55 1.50 1.50 1.74 1.65 1.65 1.75 1.83 1.75 1.69 1.78 1.78
1.88 1.88 1.77 1.75 1.57 1.46 1.45 1.47 1.45 1.39 1.48 1.60 1.62 1.69 1.76 1.86 1.93 1.90 1.94 1.90 1.84 1.88 1.89 1.80 1.73 1.47 1.53 1.57 1.57 1.59 1.54 1.54 1.55 1.50 1.56 1.60 1.66 1.77 1.88 1.77 1.77 1.81 1.78
1.80 1.83 1.72 1.64 1.52 1.41 1.47 1.40 1.43 1.44 1.55 1.51 1.54 1.64 1.72 1.76 1.86 1.89 1.95 1.86 1.85 1.89 1.96 1.98 1.89 1.84 1.73 1.70 1.66 1.82 1.80 1.79 1.73 1.45 1.55 1.58 1.71 1.84 2.13 1.87 1.76 1.77 1.71
1.79 1.77 1.59 1.60 1.45 1.38 1.43 1.36 1.39 1.53 1.66 1.53 1.59 1.70 1.73 1.78 1.84 1.82 1.83 1.83 1.87 1.89 1.93 1.97 1.94 1.85 1.75 1.88 1.92 1.89 1.85 1.69 1.61 1.46 1.44 1.47 1.71 1.94 1.94 1.94 1.77 1.68 1.68
1.71 1.60 1.55 1.55 1.37 1.41 1.33 1.43 1.38 1.53 1.53 1.50 1.52 1.67 1.72 1.73 1.76 1.80 1.82 1.82 1.80 1.76 1.72 1.68 1.63 1.61 1.59 1.71 1.84 1.77 1.93 1.77 1.52 1.51 1.39 1.47 1.76 1.86 1.88 1.77 1.71 1.67 1.58
1.60 1.60 1.63 1.50 1.37 1.37 1.38 1.44 1.41 1.48 1.48 1.49 1.53 1.72 1.67 1.71 1.69 1.72 1.71 1.71 1.66 1.61 1.53 1.45 1.46 1.50 1.54 1.64 1.83 1.80 1.91 1.69 1.47 1.44 1.40 1.41 1.56 1.73 1.68 1.70 1.54 1.59 1.68
1.57 1.62 1.60 1.45 1.41 1.33 1.41 1.39 1.44 1.44 1.48 1.56 1.58 1.68 1.71 1.72 1.72 1.73 1.65 1.61 1.53 1.50 1.47 1.44 1.49 1.56 1.61 1.59 1.81 1.83 1.96 1.78 1.62 1.53 1.52 1.63 1.75 1.66 1.62 1.56 1.57 1.69 1.67
1.55 1.59 1.53 1.49 1.42 1.32 1.35 1.47 1.48 1.45 1.55 1.60 1.60 1.66 1.74 1.75 1.72 1.60 1.57 1.48 1.44 1.41 1.34 1.36 1.50 1.63 1.70 1.59 1.75 1.79 1.89 1.77 1.67 1.54 1.57 1.52 1.57 1.58 1.56 1.54 1.59 1.58 1.62
1.56 1.52 1.48 1.47 1.43 1.36 1.46 1.51 1.49 1.50 1.59 1.63 1.67 1.68 1.68 1.67 1.57 1.50 1.49 1.44 1.44 1.45 1.33 1.30 1.51 1.63 1.72 1.76 1.77 1.69 1.79 1.76 1.61 1.58 1.52 1.43 1.45 1.49 1.51 1.48 1.53 1.56 1.57
1.52 1.45 1.38 1.43 1.46 1.44 1.51 1.56 1.57 1.60 1.68 1.67 1.63 1.58 1.54 1.48 1.49 1.46 1.44 1.47 1.49 1.55 1.47 1.40 1.45 1.61 1.68 1.81 1.75 1.68 1.69 1.70 1.67 1.65 1.60 1.49 1.42 1.46 1.48 1.46 1.47 1.49 1.52
1.43 1.40 1.37 1.39 1.42 1.48 1.51 1.56 1.59 1.61 1.65 1.62 1.55 1.49 1.47 1.43 1.44 1.44 1.41 1.51 1.66 1.60 1.62 1.78 1.55 1.58 1.65 1.81 1.82 1.78 1.81 1.70 1.69 1.69 1.57 1.40 1.36 1.43 1.36 1.46 1.47 1.49 1.48
1.31 1.32 1.32 1.35 1.37 1.43 1.47 1.50 1.52 1.59 1.68 1.73 1.77 1.60 1.50 1.46 1.44 1.44 1.46 1.61 1.71 1.68 1.64 1.58 1.60 1.67 1.71 1.60 1.68 1.79 1.83 1.82 1.75 1.69 1.59 1.50 1.41 1.35 1.32 1.41 1.44 1.51 1.56
1.30 1.30 1.30 1.29 1.34 1.35 1.35 1.40 1.50 1.63 1.77 1.80 1.71 1.59 1.63 1.53 1.45 1.55 1.58 1.82 1.88 1.88 1.63 1.57 1.54 1.48 1.50 1.58 1.45 1.59 1.78 1.84 1.78 1.72 1.62 1.52 1.40 1.37 1.33 1.26 1.35 1.50 1.53
1.27 1.22 1.25 1.27 1.30 1.33 1.30 1.27 1.47 1.76 1.93 1.83 1.74 1.66 1.63 1.66 1.70 1.71 1.71 1.80 1.90 1.83 1.61 1.60 1.51 1.39 1.44 1.47 1.56 1.42 1.63 1.69 1.67 1.63 1.60 1.71 1.52 1.40 1.37 1.31 1.28 1.36 1.44
1.22 1.17 1.15 1.22 1.28 1.31 1.23 1.25 1.46 1.64 1.77 1.84 1.85 1.70 1.55 1.61 1.63 1.71 1.70 1.70 1.79 1.85 1.67 1.62 1.63 1.42 1.40 1.35 1.29 1.36 1.41 1.49 1.57 1.59 1.59 1.78 1.74 1.56 1.51 1.41 1.39 1.38 1.37
1.23 1.18 1.15 1.23 1.30 1.32 1.31 1.37 1.50 1.58 1.64 1.76 1.84 1.67 1.73 1.73 1.72 1.60 1.63 1.66 1.58 1.59 1.53 1.64 1.53 1.45 1.37 1.33 1.27 1.35 1.29 1.40 1.42 1.44 1.51 1.65 1.76 1.86 1.79 1.56 1.48 1.42 1.46
1.26 1.19 1.15 1.24 1.34 1.35 1.41 1.43 1.52 1.58 1.62 1.56 1.66 1.62 1.67 1.82 1.84 1.72 1.73 1.66 1.50 1.55 1.59 1.56 1.53 1.42 1.28 1.22 1.23 1.29 1.31 1.29 1.37 1.44 1.50 1.44 1.60 1.61 1.68 1.83 1.68 1.61 1.51
1.26 1.21 1.30 1.35 1.37 1.38 1.46 1.46 1.52 1.61 1.63 1.56 1.56 1.60 1.65 1.72 1.69 1.80 1.79 1.73 1.58 1.65 1.69 1.66 1.61 1.39 1.33 1.31 1.28 1.21 1.23 1.28 1.33 1.38 1.46 1.40 1.49 1.56 1.60 1.66 1.69 1.71 1.75
1.32 1.22 1.30 1.36 1.36 1.41 1.47 1.49 1.52 1.57 1.58 1.48 1.54 1.58 1.61 1.61 1.61 1.65 1.77 1.80 1.57 1.63 1.67 1.64 1.69 1.51 1.36 1.38 1.26 1.30 1.28 1.21 1.36 1.34 1.37 1.37 1.40 1.44 1.47 1.51 1.56 1.50 1.56
1.39 1.32 1.31 1.35 1.41 1.42 1.46 1.40 1.46 1.47 1.50 1.57 1.55 1.58 1.59 1.56 1.56 1.63 1.71 1.68 1.64 1.65 1.62 1.60 1.55 1.46 1.45 1.31 1.24 1.24 1.28 1.32 1.38 1.34 1.36 1.35 1.35 1.37 1.40 1.41 1.36 1.40 1.47
1.39 1.35 1.31 1.30 1.38 1.39 1.34 1.28 1.27 1.25 1.31 1.39 1.50 1.54 1.53 1.55 1.57 1.59 1.63 1.66 1.66 1.64 1.59 1.53 1.47 1.37 1.22 1.24 1.23 1.15 1.26 1.29 1.24 1.30 1.34 1.34 1.25 1.28 1.21 1.31 1.38 1.29 1.39
1.30 1.36 1.31 1.30 1.35 1.34 1.30 1.23 1.20 1.21 1.25 1.32 1.42 1.45 1.51 1.54 1.54 1.56 1.57 1.71 1.66 1.65 1.58 1.43 1.43 1.32 1.28 1.24 1.10 1.05 0.94 1.08 1.25 1.38 1.40 1.41 1.33 1.37 1.32 1.33 1.35 1.34 1.36
1.26 1.28 1.30 1.32 1.31 1.32 1.31 1.25 1.18 1.18 1.20 1.21 1.28 1.32 1.40 1.50 1.56 1.54 1.54 1.66 1.68 1.69 1.58 1.48 1.40 1.31 1.06 1.22 1.31 1.11 0.94 0.90 1.11 1.30 1.33 1.42 1.37 1.39 1.38 1.43 1.43 1.43 1.38
1.25 1.32 1.32 1.37 1.36 1.35 1.34 1.21 1.09 0.95 0.93 1.06 1.12 1.24 1.34 1.47 1.51 1.48 1.46 1.52 1.64 1.67 1.63 1.55 1.36 1.39 1.12 1.07 1.22 1.33 1.33 1.17 0.96 0.98 1.21 1.31 1.37 1.36 1.36 1.45 1.43 1.41 1.40
1.34 1.33 1.29 1.36 1.37 1.38 1.33 1.26 1.11 1.03 1.05 1.14 1.18 1.21 1.28 1.39 1.44 1.40 1.38 1.44 1.51 1.58 1.60 1.56 1.33 1.39 1.22 1.13 1.19 1.29 1.29 1.25 1.19 1.05 0.96 1.09 1.25 1.28 1.35 1.37 1.38 1.35 1.35
1.31 1.33 1.33 1.32 1.33 1.37 1.35 1.28 1.15 1.04 1.03 1.04 1.11 1.11 1.19 1.27 1.34 1.37 1.38 1.41 1.47 1.48 1.51 1.54 1.50 1.36 1.35 1.19 1.25 1.28 1.24 1.14 1.08 1.07 1.02 1.06 1.05 1.12 1.22 1.31 1.30 1.30 1.34

GFSSE_prec_pwat_045.txt.gz
Precipitable_Water
1.91 1.87 1.74 1.75 1.61 1.61 1.53 1.49 1.53 1.59 1.61 1.65 1.68 1.73 1.81 1.92 1.87 1.83 1.78 1.79 1.75 1.77 1.72 1.56 1.37 1.34 1.53 1.63 1.51 1.52 1.59 1.61 1.66 1.77 1.80 1.65 1.68 1.74 1.69 1.65 1.73 1.74 1.70
1.80 1.80 1.70 1.70 1.53 1.58 1.51 1.52 1.48 1.54 1.58 1.63 1.73 1.87 1.93 1.95 1.90 1.87 1.82 1.84 1.81 1.90 1.81 1.68 1.48 1.60 1.51 1.55 1.58 1.60 1.60 1.55 1.51 1.59 1.77 1.72 1.79 1.79 1.71 1.74 1.78 1.76 1.69
1.70 1.73 1.72 1.58 1.50 1.54 1.51 1.44 1.53 1.59 1.58 1.61 1.70 1.78 1.96 1.90 1.88 1.93 1.83 1.89 1.92 1.97 1.89 1.84 1.81 1.83 1.84 1.74 1.74 1.70 1.65 1.71 1.47 1.53 1.67 1.64 1.79 2.02 1.83 1.79 1.75 1.71 1.66
1.67 1.74 1.65 1.49 1.52 1.46 1.45 1.46 1.57 1.48 1.54 1.63 1.70 1.72 1.79 1.85 1.88 1.91 1.82 1.86 1.93 1.97 2.03 1.91 1.82 1.78 1.89 1.96 1.90 1.88 1.74 1.64 1.44 1.56 1.55 1.65 1.86 2.09 1.97 1.76 1.74 1.64 1.64
1.68 1.67 1.56 1.47 1.50 1.39 1.38 1.50 1.62 1.51 1.53 1.69 1.74 1.76 1.85 1.83 1.80 1.82 1.84 1.83 1.79 1.77 1.71 1.64 1.64 1.60 1.72 1.88 1.81 1.92 1.64 1.52 1.41 1.40 1.48 1.68 1.84 1.90 1.85 1.72 1.67 1.60 1.55
1.60 1.59 1.53 1.44 1.46 1.37 1.39 1.48 1.55 1.48 1.51 1.66 1.68 1.72 1.73 1.74 1.75 1.72 1.69 1.66 1.62 1.54 1.49 1.51 1.61 1.63 1.75 1.84 1.83 1.80 1.63 1.51 1.48 1.37 1.52 1.69 1.78 1.82 1.69 1.68 1.56 1.58 1.60
1.49 1.53 1.48 1.44 1.38 1.43 1.39 1.43 1.48 1.49 1.52 1.69 1.71 1.71 1.71 1.71 1.68 1.64 1.64 1.54 1.48 1.45 1.49 1.57 1.66 1.66 1.66 1.82 1.88 1.77 1.63 1.50 1.42 1.42 1.48 1.58 1.68 1.68 1.63 1.54 1.67 1.65 1.60
1.48 1.52 1.44 1.42 1.35 1.44 1.41 1.44 1.45 1.54 1.56 1.63 1.67 1.74 1.74 1.71 1.67 1.60 1.48 1.40 1.33 1.30 1.42 1.61 1.75 1.67 1.65 1.82 1.86 1.84 1.72 1.63 1.50 1.48 1.58 1.64 1.64 1.55 1.53 1.59 1.59 1.61 1.61
1.55 1.50 1.38 1.40 1.33 1.40 1.46 1.45 1.50 1.60 1.60 1.62 1.69 1.74 1.73 1.57 1.54 1.51 1.42 1.41 1.34 1.29 1.41 1.59 1.68 1.67 1.66 1.73 1.81 1.85 1.74 1.61 1.51 1.50 1.39 1.43 1.47 1.51 1.51 1.62 1.60 1.60 1.62
1.52 1.44 1.39 1.37 1.32 1.40 1.50 1.48 1.54 1.63 1.67 1.68 1.67 1.63 1.57 1.49 1.51 1.50 1.41 1.53 1.49 1.46 1.45 1.53 1.70 1.77 1.75 1.65 1.64 1.73 1.75 1.71 1.66 1.59 1.49 1.42 1.48 1.50 1.52 1.54 1.56 1.63 1.58
1.46 1.39 1.36 1.32 1.37 1.43 1.50 1.53 1.60 1.70 1.68 1.62 1.55 1.49 1.45 1.40 1.42 1.45 1.50 1.63 1.56 1.67 1.72 1.60 1.66 1.74 1.74 1.77 1.71 1.66 1.70 1.69 1.66 1.58 1.43 1.46 1.51 1.47 1.45 1.47 1.56 1.54 1.63
1.27 1.32 1.33 1.37 1.39 1.45 1.52 1.55 1.61 1.66 1.62 1.55 1.50 1.47 1.45 1.44 1.43 1.53 1.63 1.74 1.69 1.60 1.61 1.52 1.62 1.65 1.62 1.69 1.75 1.82 1.71 1.68 1.68 1.54 1.49 1.48 1.46 1.43 1.49 1.54 1.48 1.49 1.56
1.22 1.29 1.31 1.36 1.41 1.40 1.44 1.47 1.59 1.69 1.73 1.77 1.61 1.49 1.46 1.41 1.49 1.60 1.82 1.81 1.81 1.63 1.57 1.56 1.51 1.50 1.50 1.50 1.61 1.72 1.78 1.80 1.74 1.56 1.57 1.47 1.47 1.41 1.41 1.40 1.48 1.54 1.60
1.18 1.22 1.28 1.33 1.33 1.37 1.40 1.46 1.59 1.68 1.76 1.71 1.64 1.63 1.64 1.54 1.61 1.64 1.73 1.80 1.80 1.64 1.55 1.54 1.44 1.48 1.46 1.53 1.45 1.53 1.70 1.75 1.71 1.57 1.60 1.58 1.43 1.42 1.36 1.34 1.41 1.46 1.45
1.16 1.20 1.22 1.26 1.24 1.27 1.27 1.46 1.69 1.78 1.78 1.77 1.69 1.55 1.60 1.63 1.69 1.69 1.70 1.71 1.75 1.68 1.66 1.65 1.59 1.45 1.36 1.33 1.42 1.44 1.48 1.58 1.63 1.57 1.70 1.79 1.52 1.54 1.40 1.34 1.33 1.32 1.35
1.21 1.17 1.22 1.18 1.22 1.26 1.21 1.35 1.58 1.75 1.85 1.86 1.72 1.65 1.64 1.75 1.68 1.64 1.63 1.59 1.53 1.57 1.61 1.58 1.56 1.43 1.30 1.29 1.32 1.35 1.36 1.49 1.56 1.59 1.70 1.79 1.86 1.83 1.65 1.48 1.38 1.36 1.40
1.18 1.16 1.14 1.12 1.20 1.23 1.25 1.34 1.50 1.62 1.70 1.75 1.73 1.72 1.77 1.86 1.73 1.71 1.65 1.49 1.45 1.52 1.52 1.55 1.46 1.43 1.30 1.25 1.28 1.26 1.28 1.44 1.44 1.51 1.57 1.66 1.72 1.75 1.87 1.77 1.59 1.51 1.50
1.17 1.13 1.11 1.14 1.19 1.21 1.33 1.41 1.47 1.56 1.63 1.61 1.63 1.67 1.77 1.75 1.73 1.75 1.72 1.59 1.52 1.63 1.62 1.56 1.50 1.43 1.34 1.21 1.19 1.20 1.28 1.35 1.33 1.43 1.47 1.50 1.57 1.59 1.63 1.68 1.68 1.73 1.71
1.16 1.17 1.15 1.14 1.19 1.22 1.37 1.48 1.46 1.54 1.61 1.58 1.54 1.57 1.62 1.67 1.68 1.74 1.74 1.74 1.63 1.66 1.60 1.73 1.52 1.39 1.37 1.26 1.18 1.20 1.23 1.28 1.29 1.38 1.40 1.38 1.45 1.44 1.46 1.54 1.54 1.52 1.57
1.26 1.22 1.13 1.18 1.26 1.33 1.37 1.43 1.49 1.51 1.59 1.50 1.48 1.55 1.60 1.63 1.63 1.55 1.63 1.69 1.58 1.62 1.58 1.60 1.51 1.39 1.36 1.28 1.20 1.21 1.26 1.31 1.35 1.37 1.33 1.32 1.32 1.33 1.34 1.32 1.34 1.40 1.51
1.36 1.20 1.21 1.25 1.30 1.39 1.39 1.33 1.37 1.35 1.43 1.48 1.47 1.53 1.56 1.62 1.62 1.49 1.55 1.63 1.65 1.59 1.54 1.56 1.46 1.28 1.27 1.30 1.17 1.13 1.18 1.30 1.27 1.35 1.39 1.34 1.28 1.22 1.25 1.27 1.29 1.27 1.34
1.29 1.29 1.21 1.23 1.29 1.37 1.39 1.39 1.33 1.34 1.37 1.41 1.47 1.51 1.54 1.56 1.60 1.55 1.54 1.70 1.66 1.57 1.48 1.50 1.43 1.29 1.20 1.23 1.11 1.06 0.96 1.07 1.19 1.32 1.41 1.41 1.35 1.36 1.32 1.33 1.34 1.23 1.28
1.15 1.25 1.24 1.24 1.26 1.34 1.38 1.41 1.40 1.38 1.34 1.31 1.34 1.38 1.45 1.52 1.53 1.54 1.51 1.60 1.71 1.59 1.45 1.41 1.38 1.28 1.16 1.20 1.27 1.10 0.95 0.91 1.10 1.29 1.35 1.41 1.39 1.38 1.41 1.38 1.37 1.33 1.32
1.06 1.24 1.27 1.26 1.30 1.34 1.38 1.34 1.27 1.11 0.99 1.12 1.21 1.32 1.37 1.47 1.45 1.47 1.50 1.50 1.66 1.70 1.48 1.52 1.43 1.36 1.19 1.08 1.22 1.30 1.21 1.14 0.98 0.97 1.22 1.31 1.38 1.35 1.35 1.39 1.38 1.36 1.34
1.09 1.15 1.27 1.32 1.34 1.36 1.33 1.33 1.26 1.12 1.05 1.12 1.16 1.17 1.30 1.37 1.40 1.37 1.42 1.44 1.46 1.61 1.62 1.56 1.40 1.38 1.23 1.15 1.18 1.22 1.21 1.20 1.15 1.03 0.93 1.03 1.21 1.27 1.28 1.30 1.34 1.34 1.32
1.11 1.19 1.22 1.29 1.32 1.37 1.35 1.34 1.26 1.17 1.05 0.98 0.99 1.01 1.16 1.28 1.29 1.29 1.34 1.40 1.45 1.52 1.55 1.53 1.51 1.36 1.37 1.21 1.22 1.26 1.20 1.11 1.02 0.99 0.93 0.94 0.94 1.06 1.17 1.22 1.28 1.35 1.37

GFSSE_prec_pwat_048.txt.gz
Precipitable_Water
1.91 1.95 1.88 1.67 1.69 1.49 1.51 1.51 1.55 1.51 1.54 1.56 1.59 1.70 1.74 1.67 1.69 1.78 1.86 1.83 1.73 1.64 1.51 1.43 1.40 1.47 1.59 1.58 1.59 1.65 1.65 1.87 1.76 1.78 1.74 1.72 1.69 1.69 1.66 1.73 1.72 1.72 1.69
1.84 1.80 1.72 1.64 1.68 1.47 1.48 1.55 1.54 1.57 1.64 1.71 1.74 1.86 1.88 1.87 1.87 1.83 1.81 1.79 1.81 1.85 1.72 1.50 1.59 1.54 1.54 1.56 1.58 1.58 1.62 1.61 1.66 1.73 1.75 1.71 1.82 1.70 1.75 1.75 1.79 1.67 1.70
1.70 1.71 1.71 1.62 1.54 1.55 1.45 1.47 1.47 1.57 1.63 1.74 1.87 1.94 1.92 1.96 1.96 1.84 1.91 1.83 1.95 1.88 1.80 1.79 1.86 1.83 1.76 1.71 1.69 1.68 1.74 1.56 1.47 1.65 1.69 1.71 1.90 1.77 1.80 1.78 1.72 1.68 1.64
1.65 1.69 1.60 1.60 1.52 1.45 1.49 1.58 1.55 1.59 1.67 1.70 1.86 1.96 1.98 1.96 1.89 1.78 1.85 1.88 2.03 2.07 1.95 1.79 1.71 1.76 1.88 1.82 1.90 1.73 1.63 1.48 1.46 1.59 1.62 1.74 2.00 1.97 1.81 1.75 1.65 1.66 1.59
1.62 1.66 1.51 1.60 1.51 1.44 1.56 1.60 1.45 1.64 1.66 1.74 1.79 1.88 1.88 1.88 1.88 1.82 1.77 1.81 1.83 1.71 1.59 1.58 1.67 1.75 1.83 1.79 1.86 1.61 1.55 1.40 1.52 1.56 1.69 1.80 1.98 1.95 1.77 1.69 1.65 1.59 1.61
1.63 1.55 1.52 1.58 1.44 1.42 1.60 1.62 1.48 1.65 1.71 1.76 1.82 1.85 1.85 1.80 1.75 1.72 1.71 1.69 1.57 1.49 1.52 1.56 1.65 1.74 1.84 1.87 1.80 1.60 1.53 1.52 1.41 1.52 1.64 1.77 1.81 1.81 1.65 1.62 1.56 1.60 1.63
1.56 1.50 1.52 1.52 1.41 1.39 1.57 1.51 1.48 1.62 1.74 1.68 1.77 1.72 1.74 1.72 1.68 1.65 1.56 1.47 1.47 1.53 1.61 1.69 1.71 1.72 1.86 1.86 1.72 1.50 1.51 1.49 1.41 1.48 1.57 1.70 1.73 1.67 1.65 1.66 1.66 1.64 1.65
1.46 1.45 1.51 1.42 1.47 1.39 1.48 1.50 1.50 1.59 1.75 1.74 1.74 1.72 1.70 1.70 1.62 1.48 1.43 1.38 1.35 1.47 1.65 1.69 1.64 1.67 1.88 1.85 1.76 1.68 1.54 1.46 1.45 1.55 1.66 1.66 1.70 1.56 1.62 1.63 1.66 1.64 1.64
1.49 1.39 1.45 1.37 1.49 1.42 1.46 1.48 1.56 1.57 1.66 1.71 1.76 1.74 1.67 1.56 1.46 1.43 1.41 1.32 1.41 1.52 1.71 1.68 1.60 1.66 1.79 1.87 1.72 1.65 1.63 1.54 1.48 1.49 1.51 1.55 1.54 1.57 1.63 1.60 1.62 1.63 1.57
1.45 1.37 1.37 1.32 1.42 1.45 1.47 1.52 1.62 1.62 1.63 1.72 1.73 1.68 1.52 1.54 1.46 1.53 1.59 1.51 1.54 1.59 1.64 1.76 1.72 1.61 1.63 1.83 1.76 1.76 1.71 1.63 1.52 1.43 1.41 1.47 1.51 1.50 1.58 1.56 1.62 1.59 1.62
1.40 1.31 1.36 1.26 1.34 1.46 1.47 1.57 1.65 1.70 1.69 1.65 1.63 1.54 1.45 1.42 1.39 1.59 1.67 1.61 1.74 1.72 1.61 1.67 1.74 1.67 1.61 1.68 1.66 1.73 1.74 1.65 1.56 1.40 1.42 1.51 1.42 1.46 1.47 1.50 1.56 1.57 1.58
1.24 1.25 1.32 1.29 1.33 1.44 1.49 1.59 1.70 1.74 1.66 1.55 1.48 1.43 1.39 1.38 1.48 1.58 1.75 1.77 1.66 1.65 1.52 1.58 1.63 1.68 1.72 1.75 1.72 1.69 1.63 1.62 1.53 1.43 1.43 1.49 1.49 1.52 1.44 1.56 1.51 1.54 1.53
1.21 1.22 1.29 1.36 1.38 1.44 1.52 1.61 1.67 1.62 1.56 1.52 1.45 1.41 1.43 1.46 1.62 1.81 1.79 1.81 1.71 1.61 1.56 1.48 1.44 1.44 1.57 1.68 1.74 1.77 1.73 1.69 1.59 1.51 1.44 1.46 1.37 1.40 1.39 1.46 1.52 1.58 1.55
1.16 1.18 1.32 1.39 1.35 1.44 1.53 1.54 1.64 1.65 1.73 1.57 1.49 1.42 1.45 1.57 1.61 1.75 1.75 1.86 1.73 1.63 1.57 1.48 1.40 1.41 1.48 1.47 1.55 1.77 1.74 1.72 1.63 1.55 1.53 1.46 1.38 1.37 1.38 1.48 1.53 1.46 1.45
1.09 1.15 1.27 1.34 1.32 1.40 1.45 1.56 1.67 1.67 1.71 1.61 1.66 1.61 1.61 1.59 1.59 1.69 1.70 1.73 1.77 1.68 1.70 1.60 1.39 1.38 1.33 1.40 1.48 1.54 1.69 1.70 1.63 1.60 1.72 1.51 1.51 1.40 1.34 1.38 1.38 1.39 1.36
1.11 1.12 1.23 1.25 1.29 1.36 1.41 1.54 1.73 1.71 1.73 1.68 1.57 1.50 1.62 1.65 1.75 1.66 1.72 1.66 1.62 1.63 1.62 1.60 1.45 1.34 1.27 1.30 1.30 1.40 1.51 1.63 1.62 1.64 1.76 1.80 1.73 1.70 1.45 1.37 1.33 1.34 1.38
1.11 1.14 1.16 1.17 1.23 1.25 1.31 1.50 1.70 1.80 1.81 1.74 1.75 1.68 1.76 1.74 1.72 1.70 1.64 1.53 1.61 1.60 1.58 1.55 1.49 1.34 1.24 1.25 1.24 1.30 1.46 1.53 1.55 1.57 1.69 1.76 1.76 1.82 1.81 1.67 1.55 1.44 1.48
1.17 1.12 1.17 1.17 1.15 1.19 1.26 1.38 1.51 1.66 1.74 1.71 1.74 1.79 1.81 1.78 1.81 1.77 1.71 1.55 1.62 1.66 1.68 1.56 1.44 1.36 1.22 1.25 1.22 1.25 1.39 1.44 1.42 1.45 1.49 1.53 1.56 1.65 1.69 1.76 1.77 1.75 1.69
1.18 1.15 1.13 1.15 1.08 1.13 1.25 1.33 1.44 1.54 1.56 1.61 1.66 1.66 1.70 1.71 1.77 1.81 1.79 1.71 1.61 1.65 1.65 1.62 1.48 1.41 1.30 1.23 1.20 1.29 1.33 1.32 1.36 1.40 1.35 1.39 1.42 1.47 1.51 1.56 1.52 1.53 1.54
1.22 1.18 1.13 1.12 1.09 1.14 1.24 1.39 1.44 1.49 1.55 1.58 1.53 1.58 1.61 1.68 1.72 1.68 1.72 1.72 1.58 1.55 1.55 1.51 1.41 1.45 1.39 1.24 1.19 1.20 1.27 1.35 1.35 1.34 1.29 1.28 1.23 1.30 1.33 1.31 1.42 1.47 1.49
1.27 1.16 1.13 1.07 1.08 1.17 1.20 1.24 1.33 1.32 1.47 1.50 1.48 1.55 1.59 1.62 1.62 1.57 1.63 1.70 1.63 1.52 1.52 1.53 1.40 1.28 1.30 1.25 1.11 1.14 1.20 1.38 1.31 1.32 1.34 1.30 1.23 1.26 1.26 1.27 1.27 1.25 1.25
1.24 1.14 1.15 1.14 1.08 1.18 1.18 1.26 1.34 1.36 1.42 1.47 1.51 1.51 1.60 1.59 1.63 1.61 1.62 1.59 1.65 1.52 1.58 1.50 1.42 1.26 1.25 1.26 1.04 0.98 0.89 1.02 1.19 1.28 1.32 1.34 1.31 1.33 1.29 1.30 1.25 1.27 1.28
1.22 1.16 1.16 1.12 1.08 1.22 1.29 1.36 1.37 1.43 1.44 1.38 1.40 1.45 1.53 1.56 1.56 1.60 1.68 1.65 1.65 1.66 1.50 1.47 1.39 1.32 1.15 1.27 1.27 1.10 0.92 0.88 1.06 1.26 1.29 1.35 1.34 1.33 1.35 1.35 1.31 1.29 1.26
1.19 1.30 1.24 1.19 1.15 1.28 1.36 1.33 1.30 1.23 1.14 1.23 1.31 1.37 1.44 1.53 1.50 1.54 1.57 1.63 1.63 1.68 1.52 1.50 1.43 1.37 1.27 1.10 1.22 1.30 1.18 1.13 0.98 0.94 1.19 1.25 1.32 1.30 1.29 1.32 1.30 1.28 1.30
1.18 1.25 1.31 1.27 1.22 1.24 1.30 1.33 1.30 1.26 1.26 1.26 1.29 1.31 1.37 1.43 1.44 1.46 1.50 1.54 1.55 1.62 1.65 1.54 1.49 1.33 1.32 1.14 1.15 1.18 1.20 1.18 1.16 1.02 0.90 1.01 1.15 1.21 1.23 1.22 1.25 1.28 1.29
1.11 1.17 1.26 1.27 1.24 1.27 1.29 1.30 1.26 1.22 1.19 1.18 1.16 1.15 1.20 1.29 1.31 1.35 1.41 1.47 1.52 1.53 1.57 1.57 1.54 1.38 1.37 1.19 1.18 1.21 1.16 1.11 1.02 0.98 0.91 0.93 0.91 1.01 1.15 1.20 1.22 1.27 1.34